Time,TemperatureF,DewpointF,PressureIn,WindDirection,WindDirectionDegrees,WindSpeedMPH,WindSpeedGustMPH,Humidity,HourlyPrecipIn,Conditions,Clouds,dailyrainin,SoftwareType,DateUTC
2013-03-29 00:00:00,40.2,26.6,30.25,ENE,72,0.0,0.0,58,0.00,,,0.00,Wunderground v.1.15,2013-03-29 04:00:00,
2013-03-29 00:01:00,40.1,26.5,30.25,ENE,72,0.0,0.0,58,0.00,,,0.00,Wunderground v.1.15,2013-03-29 04:01:00,
2013-03-29 00:02:00,40.1,26.9,30.25,ENE,72,0.0,0.0,59,0.00,,,0.00,Wunderground v.1.15,2013-03-29 04:02:00,
2013-03-29 00:06:00,39.7,26.5,30.25,ENE,72,0.0,0.0,59,0.00,,,0.00,Wunderground v.1.15,2013-03-29 04:06:00,
2013-03-29 00:07:00,39.7,26.5,30.25,ENE,72,0.0,0.0,59,0.00,,,0.00,Wunderground v.1.15,2013-03-29 04:07:00,
2013-03-29 00:08:00,39.7,26.5,30.25,ENE,72,0.0,0.0,59,0.00,,,0.00,Wunderground v.1.15,2013-03-29 04:08:00,
2013-03-29 00:13:00,39.4,26.7,30.25,ENE,72,0.0,0.0,60,0.00,,,0.00,Wunderground v.1.15,2013-03-29 04:13:00,
2013-03-29 00:15:00,39.3,27.0,30.25,ENE,72,0.0,0.0,61,0.00,,,0.00,Wunderground v.1.15,2013-03-29 04:15:00,
2013-03-29 00:17:00,39.2,26.5,30.25,ENE,72,0.0,0.0,60,0.00,,,0.00,Wunderground v.1.15,2013-03-29 04:17:00,
2013-03-29 00:20:00,39.1,26.8,30.25,ENE,72,0.0,0.0,61,0.00,,,0.00,Wunderground v.1.15,2013-03-29 04:20:00,
2013-03-29 00:24:00,38.8,26.9,30.25,ENE,72,0.0,0.0,62,0.00,,,0.00,Wunderground v.1.15,2013-03-29 04:24:00,
2013-03-29 00:25:00,38.7,26.8,30.25,ENE,72,0.0,0.0,62,0.00,,,0.00,Wunderground v.1.15,2013-03-29 04:25:00,
2013-03-29 00:27:00,38.6,27.1,30.25,ENE,72,0.0,0.0,63,0.00,,,0.00,Wunderground v.1.15,2013-03-29 04:27:00,
2013-03-29 00:28:00,38.5,27.0,30.25,ENE,72,0.0,0.0,63,0.00,,,0.00,Wunderground v.1.15,2013-03-29 04:28:00,
2013-03-29 00:30:00,38.3,26.8,30.25,ENE,72,0.0,0.0,63,0.00,,,0.00,Wunderground v.1.15,2013-03-29 04:30:00,
2013-03-29 00:31:00,38.3,26.8,30.25,ENE,72,0.0,0.0,63,0.00,,,0.00,Wunderground v.1.15,2013-03-29 04:31:00,
2013-03-29 00:33:00,38.1,26.6,30.25,ENE,72,0.0,0.0,63,0.00,,,0.00,Wunderground v.1.15,2013-03-29 04:33:00,
2013-03-29 00:34:00,38.0,26.5,30.25,ENE,72,0.0,0.0,63,0.00,,,0.00,Wunderground v.1.15,2013-03-29 04:34:00,
2013-03-29 00:36:00,37.9,26.4,30.25,ENE,72,0.0,0.0,63,0.00,,,0.00,Wunderground v.1.15,2013-03-29 04:36:00,
2013-03-29 00:39:00,37.7,26.2,30.25,ENE,72,0.0,0.0,63,0.00,,,0.00,Wunderground v.1.15,2013-03-29 04:39:00,
2013-03-29 00:42:00,37.6,26.1,30.25,ENE,72,0.0,0.0,63,0.00,,,0.00,Wunderground v.1.15,2013-03-29 04:42:00,
2013-03-29 00:43:00,37.5,26.0,30.25,ENE,72,0.0,0.0,63,0.00,,,0.00,Wunderground v.1.15,2013-03-29 04:43:00,
2013-03-29 00:46:00,37.3,26.2,30.25,ENE,72,0.0,0.0,64,0.00,,,0.00,Wunderground v.1.15,2013-03-29 04:46:00,
2013-03-29 00:47:00,37.3,26.6,30.25,ENE,72,0.0,0.0,65,0.00,,,0.00,Wunderground v.1.15,2013-03-29 04:47:00,
2013-03-29 00:49:00,37.2,26.5,30.25,ENE,72,0.0,0.0,65,0.00,,,0.00,Wunderground v.1.15,2013-03-29 04:49:00,
2013-03-29 00:53:00,37.1,26.4,30.25,ENE,72,0.0,0.0,65,0.00,,,0.00,Wunderground v.1.15,2013-03-29 04:53:00,
2013-03-29 00:54:00,37.0,26.3,30.25,ENE,72,0.0,0.0,65,0.00,,,0.00,Wunderground v.1.15,2013-03-29 04:54:00,
2013-03-29 00:55:00,36.9,26.2,30.25,ENE,72,0.0,0.0,65,0.00,,,0.00,Wunderground v.1.15,2013-03-29 04:55:00,
2013-03-29 00:56:00,36.9,26.6,30.25,ENE,72,0.0,0.0,66,0.00,,,0.00,Wunderground v.1.15,2013-03-29 04:56:00,
2013-03-29 01:00:00,36.8,27.2,30.25,ENE,72,0.0,0.0,68,0.00,,,0.00,Wunderground v.1.15,2013-03-29 05:00:00,
2013-03-29 01:01:00,36.7,27.1,30.26,ENE,72,0.0,0.0,68,0.00,,,0.00,Wunderground v.1.15,2013-03-29 05:01:00,
2013-03-29 01:02:00,36.7,27.1,30.25,ENE,72,0.0,0.0,68,0.00,,,0.00,Wunderground v.1.15,2013-03-29 05:02:00,
2013-03-29 01:05:00,36.6,27.0,30.26,ENE,72,0.0,0.0,68,0.00,,,0.00,Wunderground v.1.15,2013-03-29 05:05:00,
2013-03-29 01:07:00,36.5,26.9,30.25,ENE,72,1.0,1.0,68,0.00,,,0.00,Wunderground v.1.15,2013-03-29 05:07:00,
2013-03-29 01:09:00,36.4,26.8,30.25,ENE,72,0.0,1.0,68,0.00,,,0.00,Wunderground v.1.15,2013-03-29 05:09:00,
2013-03-29 01:10:00,36.4,26.8,30.25,ENE,72,0.0,0.0,68,0.00,,,0.00,Wunderground v.1.15,2013-03-29 05:10:00,
2013-03-29 01:13:00,36.3,26.7,30.25,ENE,72,0.0,0.0,68,0.00,,,0.00,Wunderground v.1.15,2013-03-29 05:13:00,
2013-03-29 01:16:00,36.2,26.6,30.26,ENE,72,0.0,1.0,68,0.00,,,0.00,Wunderground v.1.15,2013-03-29 05:16:00,
2013-03-29 01:19:00,36.1,26.9,30.25,ENE,72,0.0,1.0,69,0.00,,,0.00,Wunderground v.1.15,2013-03-29 05:19:00,
2013-03-29 01:20:00,36.1,26.9,30.25,ENE,72,0.0,0.0,69,0.00,,,0.00,Wunderground v.1.15,2013-03-29 05:20:00,
2013-03-29 01:21:00,36.1,26.9,30.26,ENE,72,0.0,0.0,69,0.00,,,0.00,Wunderground v.1.15,2013-03-29 05:21:00,
2013-03-29 01:26:00,35.9,26.4,30.26,ENE,72,0.0,0.0,68,0.00,,,0.00,Wunderground v.1.15,2013-03-29 05:26:00,
2013-03-29 01:27:00,35.8,26.6,30.26,ENE,72,0.0,0.0,69,0.00,,,0.00,Wunderground v.1.15,2013-03-29 05:27:00,
2013-03-29 01:33:00,35.6,26.8,30.26,ENE,72,0.0,1.0,70,0.00,,,0.00,Wunderground v.1.15,2013-03-29 05:33:00,
2013-03-29 01:36:00,35.5,27.0,30.26,ENE,72,0.0,1.0,71,0.00,,,0.00,Wunderground v.1.15,2013-03-29 05:36:00,
2013-03-29 01:38:00,35.5,27.4,30.26,ENE,72,0.0,1.0,72,0.00,,,0.00,Wunderground v.1.15,2013-03-29 05:38:00,
2013-03-29 01:41:00,35.3,27.2,30.26,ENE,72,0.0,0.0,72,0.00,,,0.00,Wunderground v.1.15,2013-03-29 05:41:00,
2013-03-29 01:42:00,35.2,27.1,30.26,ENE,72,0.0,0.0,72,0.00,,,0.00,Wunderground v.1.15,2013-03-29 05:42:00,
2013-03-29 01:44:00,35.1,27.0,30.26,ENE,72,0.0,0.0,72,0.00,,,0.00,Wunderground v.1.15,2013-03-29 05:44:00,
2013-03-29 01:46:00,35.0,27.2,30.26,ENE,72,0.0,0.0,73,0.00,,,0.00,Wunderground v.1.15,2013-03-29 05:46:00,
2013-03-29 01:49:00,34.8,27.0,30.26,ENE,72,0.0,0.0,73,0.00,,,0.00,Wunderground v.1.15,2013-03-29 05:49:00,
2013-03-29 01:52:00,34.6,26.8,30.26,ENE,72,0.0,0.0,73,0.00,,,0.00,Wunderground v.1.15,2013-03-29 05:52:00,
2013-03-29 01:55:00,34.5,27.1,30.25,ENE,72,0.0,0.0,74,0.00,,,0.00,Wunderground v.1.15,2013-03-29 05:55:00,
2013-03-29 01:58:00,34.3,26.9,30.26,ENE,72,0.0,0.0,74,0.00,,,0.00,Wunderground v.1.15,2013-03-29 05:58:00,
2013-03-29 01:59:00,34.3,27.2,30.26,ENE,72,0.0,0.0,75,0.00,,,0.00,Wunderground v.1.15,2013-03-29 05:59:00,
2013-03-29 02:00:00,34.3,27.2,30.26,ENE,72,0.0,0.0,75,0.00,,,0.00,Wunderground v.1.15,2013-03-29 06:00:00,
2013-03-29 02:01:00,34.3,27.2,30.26,ENE,72,0.0,0.0,75,0.00,,,0.00,Wunderground v.1.15,2013-03-29 06:01:00,
2013-03-29 02:03:00,34.3,27.2,30.26,ENE,72,0.0,0.0,75,0.00,,,0.00,Wunderground v.1.15,2013-03-29 06:03:00,
2013-03-29 02:04:00,34.3,27.2,30.26,ENE,72,0.0,0.0,75,0.00,,,0.00,Wunderground v.1.15,2013-03-29 06:04:00,
2013-03-29 02:05:00,34.2,27.1,30.26,ENE,72,0.0,0.0,75,0.00,,,0.00,Wunderground v.1.15,2013-03-29 06:05:00,
2013-03-29 02:06:00,34.2,27.1,30.26,ENE,72,0.0,0.0,75,0.00,,,0.00,Wunderground v.1.15,2013-03-29 06:06:00,
2013-03-29 02:08:00,34.1,27.0,30.26,ENE,72,0.0,0.0,75,0.00,,,0.00,Wunderground v.1.15,2013-03-29 06:08:00,
2013-03-29 02:09:00,34.0,26.9,30.26,ENE,72,0.0,0.0,75,0.00,,,0.00,Wunderground v.1.15,2013-03-29 06:09:00,
2013-03-29 02:10:00,34.0,27.2,30.25,ENE,72,0.0,0.0,76,0.00,,,0.00,Wunderground v.1.15,2013-03-29 06:10:00,
2013-03-29 02:12:00,33.9,27.1,30.25,ENE,72,0.0,0.0,76,0.00,,,0.00,Wunderground v.1.15,2013-03-29 06:12:00,
2013-03-29 02:13:00,33.8,27.0,30.25,ENE,72,0.0,0.0,76,0.00,,,0.00,Wunderground v.1.15,2013-03-29 06:13:00,
2013-03-29 02:14:00,33.7,26.9,30.25,ENE,72,0.0,0.0,76,0.00,,,0.00,Wunderground v.1.15,2013-03-29 06:14:00,
2013-03-29 02:15:00,33.7,26.9,30.25,ENE,72,0.0,1.0,76,0.00,,,0.00,Wunderground v.1.15,2013-03-29 06:15:00,
2013-03-29 02:17:00,33.6,26.8,30.25,ENE,72,0.0,1.0,76,0.00,,,0.00,Wunderground v.1.15,2013-03-29 06:17:00,
2013-03-29 02:18:00,33.6,26.8,30.25,ENE,72,1.0,1.0,76,0.00,,,0.00,Wunderground v.1.15,2013-03-29 06:18:00,
2013-03-29 02:19:00,33.6,26.8,30.25,ENE,72,0.0,1.0,76,0.00,,,0.00,Wunderground v.1.15,2013-03-29 06:19:00,
2013-03-29 02:20:00,33.5,26.7,30.25,ENE,72,1.0,1.0,76,0.00,,,0.00,Wunderground v.1.15,2013-03-29 06:20:00,
2013-03-29 02:22:00,33.5,26.7,30.25,ENE,72,1.0,1.0,76,0.00,,,0.00,Wunderground v.1.15,2013-03-29 06:22:00,
2013-03-29 02:23:00,33.5,26.7,30.25,ENE,72,1.0,1.0,76,0.00,,,0.00,Wunderground v.1.15,2013-03-29 06:23:00,
2013-03-29 02:24:00,33.5,26.7,30.25,ENE,72,0.0,1.0,76,0.00,,,0.00,Wunderground v.1.15,2013-03-29 06:24:00,
2013-03-29 02:26:00,33.6,26.8,30.25,ENE,72,0.0,1.0,76,0.00,,,0.00,Wunderground v.1.15,2013-03-29 06:26:00,
2013-03-29 02:27:00,33.6,26.8,30.25,ENE,72,0.0,1.0,76,0.00,,,0.00,Wunderground v.1.15,2013-03-29 06:27:00,
2013-03-29 02:28:00,33.6,26.8,30.25,ENE,72,0.0,1.0,76,0.00,,,0.00,Wunderground v.1.15,2013-03-29 06:28:00,
2013-03-29 02:30:00,33.6,26.5,30.25,ENE,72,0.0,0.0,75,0.00,,,0.00,Wunderground v.1.15,2013-03-29 06:30:00,
2013-03-29 02:31:00,33.6,26.5,30.25,ENE,72,0.0,0.0,75,0.00,,,0.00,Wunderground v.1.15,2013-03-29 06:31:00,
2013-03-29 02:33:00,33.6,26.5,30.25,ENE,72,0.0,0.0,75,0.00,,,0.00,Wunderground v.1.15,2013-03-29 06:33:00,
2013-03-29 02:35:00,33.5,26.7,30.25,ENE,72,0.0,0.0,76,0.00,,,0.00,Wunderground v.1.15,2013-03-29 06:35:00,
2013-03-29 02:36:00,33.4,26.6,30.25,ENE,72,0.0,0.0,76,0.00,,,0.00,Wunderground v.1.15,2013-03-29 06:36:00,
2013-03-29 02:38:00,33.4,26.6,30.25,ENE,72,0.0,0.0,76,0.00,,,0.00,Wunderground v.1.15,2013-03-29 06:38:00,
2013-03-29 02:39:00,33.3,26.5,30.25,ENE,72,0.0,0.0,76,0.00,,,0.00,Wunderground v.1.15,2013-03-29 06:39:00,
2013-03-29 02:40:00,33.3,26.5,30.25,ENE,72,0.0,0.0,76,0.00,,,0.00,Wunderground v.1.15,2013-03-29 06:40:00,
2013-03-29 02:41:00,33.3,26.5,30.25,ENE,72,0.0,0.0,76,0.00,,,0.00,Wunderground v.1.15,2013-03-29 06:41:00,
2013-03-29 02:43:00,33.2,26.8,30.25,ENE,72,0.0,0.0,77,0.00,,,0.00,Wunderground v.1.15,2013-03-29 06:43:00,
2013-03-29 02:44:00,33.2,26.8,30.25,ENE,72,0.0,0.0,77,0.00,,,0.00,Wunderground v.1.15,2013-03-29 06:44:00,
2013-03-29 02:45:00,33.2,26.8,30.25,ENE,72,0.0,0.0,77,0.00,,,0.00,Wunderground v.1.15,2013-03-29 06:45:00,
2013-03-29 02:46:00,33.1,26.7,30.25,ENE,72,0.0,0.0,77,0.00,,,0.00,Wunderground v.1.15,2013-03-29 06:46:00,
2013-03-29 02:48:00,33.0,26.6,30.25,ENE,72,0.0,0.0,77,0.00,,,0.00,Wunderground v.1.15,2013-03-29 06:48:00,
2013-03-29 02:49:00,33.0,26.6,30.25,ENE,72,0.0,0.0,77,0.00,,,0.00,Wunderground v.1.15,2013-03-29 06:49:00,
2013-03-29 02:50:00,32.9,26.8,30.25,ENE,72,0.0,0.0,78,0.00,,,0.00,Wunderground v.1.15,2013-03-29 06:50:00,
2013-03-29 02:51:00,32.9,26.8,30.25,ENE,72,0.0,0.0,78,0.00,,,0.00,Wunderground v.1.15,2013-03-29 06:51:00,
2013-03-29 02:53:00,32.8,26.7,30.25,ENE,72,0.0,0.0,78,0.00,,,0.00,Wunderground v.1.15,2013-03-29 06:53:00,
2013-03-29 02:54:00,32.7,26.6,30.25,ENE,72,0.0,0.0,78,0.00,,,0.00,Wunderground v.1.15,2013-03-29 06:54:00,
2013-03-29 02:56:00,32.7,26.6,30.25,ENE,72,0.0,0.0,78,0.00,,,0.00,Wunderground v.1.15,2013-03-29 06:56:00,
2013-03-29 02:59:00,32.5,26.4,30.25,ENE,72,0.0,0.0,78,0.00,,,0.00,Wunderground v.1.15,2013-03-29 06:59:00,
2013-03-29 03:01:00,32.3,26.5,30.25,ENE,72,0.0,0.0,79,0.00,,,0.00,Wunderground v.1.15,2013-03-29 07:01:00,
2013-03-29 03:02:00,32.3,26.5,30.25,ENE,72,0.0,0.0,79,0.00,,,0.00,Wunderground v.1.15,2013-03-29 07:02:00,
2013-03-29 03:04:00,32.2,26.4,30.25,ENE,72,0.0,0.0,79,0.00,,,0.00,Wunderground v.1.15,2013-03-29 07:04:00,
2013-03-29 03:06:00,32.2,26.4,30.25,ENE,72,0.0,0.0,79,0.00,,,0.00,Wunderground v.1.15,2013-03-29 07:06:00,
2013-03-29 03:07:00,32.1,26.3,30.25,ENE,72,0.0,0.0,79,0.00,,,0.00,Wunderground v.1.15,2013-03-29 07:07:00,
2013-03-29 03:09:00,32.1,26.6,30.25,ENE,72,0.0,0.0,80,0.00,,,0.00,Wunderground v.1.15,2013-03-29 07:09:00,
2013-03-29 03:11:00,32.1,26.6,30.25,ENE,72,0.0,0.0,80,0.00,,,0.00,Wunderground v.1.15,2013-03-29 07:11:00,
2013-03-29 03:13:00,32.1,26.6,30.25,ENE,72,0.0,0.0,80,0.00,,,0.00,Wunderground v.1.15,2013-03-29 07:13:00,
2013-03-29 03:14:00,32.1,26.6,30.25,ENE,72,0.0,0.0,80,0.00,,,0.00,Wunderground v.1.15,2013-03-29 07:14:00,
2013-03-29 03:15:00,32.2,26.4,30.25,ENE,72,0.0,0.0,79,0.00,,,0.00,Wunderground v.1.15,2013-03-29 07:15:00,
2013-03-29 03:17:00,32.1,26.3,30.25,ENE,72,0.0,0.0,79,0.00,,,0.00,Wunderground v.1.15,2013-03-29 07:17:00,
2013-03-29 03:18:00,32.0,26.2,30.25,ENE,72,0.0,0.0,79,0.00,,,0.00,Wunderground v.1.15,2013-03-29 07:18:00,
2013-03-29 03:20:00,31.9,26.4,30.25,ENE,72,0.0,0.0,80,0.00,,,0.00,Wunderground v.1.15,2013-03-29 07:20:00,
2013-03-29 03:22:00,31.8,26.3,30.25,ENE,72,0.0,0.0,80,0.00,,,0.00,Wunderground v.1.15,2013-03-29 07:22:00,
2013-03-29 03:23:00,31.8,26.3,30.25,ENE,72,0.0,0.0,80,0.00,,,0.00,Wunderground v.1.15,2013-03-29 07:23:00,
2013-03-29 03:25:00,31.7,26.2,30.25,ENE,72,0.0,0.0,80,0.00,,,0.00,Wunderground v.1.15,2013-03-29 07:25:00,
2013-03-29 03:27:00,31.7,26.5,30.25,ENE,72,0.0,0.0,81,0.00,,,0.00,Wunderground v.1.15,2013-03-29 07:27:00,
2013-03-29 03:28:00,31.7,26.5,30.25,ENE,72,0.0,0.0,81,0.00,,,0.00,Wunderground v.1.15,2013-03-29 07:28:00,
2013-03-29 03:30:00,31.6,26.4,30.25,ENE,72,0.0,0.0,81,0.00,,,0.00,Wunderground v.1.15,2013-03-29 07:30:00,
2013-03-29 03:32:00,31.6,26.4,30.25,ENE,72,0.0,0.0,81,0.00,,,0.00,Wunderground v.1.15,2013-03-29 07:32:00,
2013-03-29 03:34:00,31.6,26.4,30.25,ENE,72,0.0,0.0,81,0.00,,,0.00,Wunderground v.1.15,2013-03-29 07:34:00,
2013-03-29 03:36:00,31.6,26.4,30.25,ENE,72,0.0,0.0,81,0.00,,,0.00,Wunderground v.1.15,2013-03-29 07:36:00,
2013-03-29 03:37:00,31.5,26.3,30.25,ENE,72,0.0,0.0,81,0.00,,,0.00,Wunderground v.1.15,2013-03-29 07:37:00,
2013-03-29 03:39:00,31.4,26.2,30.24,ENE,72,0.0,0.0,81,0.00,,,0.00,Wunderground v.1.15,2013-03-29 07:39:00,
2013-03-29 03:41:00,31.3,26.1,30.25,ENE,72,0.0,0.0,81,0.00,,,0.00,Wunderground v.1.15,2013-03-29 07:41:00,
2013-03-29 03:42:00,31.3,26.1,30.24,ENE,72,0.0,0.0,81,0.00,,,0.00,Wunderground v.1.15,2013-03-29 07:42:00,
2013-03-29 03:44:00,31.2,26.0,30.24,ENE,72,0.0,0.0,81,0.00,,,0.00,Wunderground v.1.15,2013-03-29 07:44:00,
2013-03-29 03:46:00,31.2,26.3,30.24,ENE,72,0.0,0.0,82,0.00,,,0.00,Wunderground v.1.15,2013-03-29 07:46:00,
2013-03-29 03:47:00,31.1,26.2,30.24,ENE,72,0.0,0.0,82,0.00,,,0.00,Wunderground v.1.15,2013-03-29 07:47:00,
2013-03-29 03:48:00,31.2,26.3,30.24,ENE,72,0.0,0.0,82,0.00,,,0.00,Wunderground v.1.15,2013-03-29 07:48:00,
2013-03-29 03:49:00,31.2,26.3,30.24,ENE,72,0.0,0.0,82,0.00,,,0.00,Wunderground v.1.15,2013-03-29 07:49:00,
2013-03-29 03:52:00,31.2,26.3,30.24,ENE,72,0.0,0.0,82,0.00,,,0.00,Wunderground v.1.15,2013-03-29 07:52:00,
2013-03-29 03:53:00,31.2,26.3,30.24,ENE,72,0.0,0.0,82,0.00,,,0.00,Wunderground v.1.15,2013-03-29 07:53:00,
2013-03-29 03:54:00,31.2,26.3,30.24,ENE,72,0.0,0.0,82,0.00,,,0.00,Wunderground v.1.15,2013-03-29 07:54:00,
2013-03-29 03:57:00,31.2,26.3,30.24,ENE,72,0.0,0.0,82,0.00,,,0.00,Wunderground v.1.15,2013-03-29 07:57:00,
2013-03-29 03:58:00,31.3,26.1,30.24,ENE,72,0.0,0.0,81,0.00,,,0.00,Wunderground v.1.15,2013-03-29 07:58:00,
2013-03-29 04:00:00,31.3,26.1,30.24,ENE,72,0.0,0.0,81,0.00,,,0.00,Wunderground v.1.15,2013-03-29 08:00:00,
2013-03-29 04:02:00,31.2,26.3,30.25,ENE,72,0.0,0.0,82,0.00,,,0.00,Wunderground v.1.15,2013-03-29 08:02:00,
2013-03-29 04:03:00,31.2,26.3,30.25,ENE,72,0.0,0.0,82,0.00,,,0.00,Wunderground v.1.15,2013-03-29 08:03:00,
2013-03-29 04:05:00,31.2,26.3,30.25,ENE,72,0.0,0.0,82,0.00,,,0.00,Wunderground v.1.15,2013-03-29 08:05:00,
2013-03-29 04:07:00,31.1,26.2,30.25,ENE,72,0.0,0.0,82,0.00,,,0.00,Wunderground v.1.15,2013-03-29 08:07:00,
2013-03-29 04:08:00,31.1,26.2,30.25,ENE,72,0.0,0.0,82,0.00,,,0.00,Wunderground v.1.15,2013-03-29 08:08:00,
2013-03-29 04:09:00,31.0,26.1,30.25,ENE,72,0.0,0.0,82,0.00,,,0.00,Wunderground v.1.15,2013-03-29 08:09:00,
2013-03-29 04:10:00,31.0,26.1,30.25,ENE,72,0.0,0.0,82,0.00,,,0.00,Wunderground v.1.15,2013-03-29 08:10:00,
2013-03-29 04:13:00,30.9,26.1,30.24,ENE,72,0.0,0.0,82,0.00,,,0.00,Wunderground v.1.15,2013-03-29 08:13:00,
2013-03-29 04:14:00,30.8,26.0,30.25,ENE,72,0.0,0.0,82,0.00,,,0.00,Wunderground v.1.15,2013-03-29 08:14:00,
2013-03-29 04:15:00,30.8,26.0,30.25,ENE,72,0.0,0.0,82,0.00,,,0.00,Wunderground v.1.15,2013-03-29 08:15:00,
2013-03-29 04:18:00,30.6,25.8,30.24,ENE,72,0.0,0.0,82,0.00,,,0.00,Wunderground v.1.15,2013-03-29 08:18:00,
2013-03-29 04:19:00,30.6,25.8,30.25,ENE,72,0.0,0.0,82,0.00,,,0.00,Wunderground v.1.15,2013-03-29 08:19:00,
2013-03-29 04:20:00,30.5,25.7,30.25,ENE,72,0.0,0.0,82,0.00,,,0.00,Wunderground v.1.15,2013-03-29 08:20:00,
2013-03-29 04:23:00,30.4,25.9,30.25,ENE,72,0.0,0.0,83,0.00,,,0.00,Wunderground v.1.15,2013-03-29 08:23:00,
2013-03-29 04:24:00,30.3,25.8,30.25,ENE,72,0.0,0.0,83,0.00,,,0.00,Wunderground v.1.15,2013-03-29 08:24:00,
2013-03-29 04:25:00,30.3,25.8,30.25,ENE,72,0.0,0.0,83,0.00,,,0.00,Wunderground v.1.15,2013-03-29 08:25:00,
2013-03-29 04:28:00,30.1,25.8,30.25,ENE,72,0.0,0.0,84,0.00,,,0.00,Wunderground v.1.15,2013-03-29 08:28:00,
2013-03-29 04:29:00,30.1,25.8,30.24,ENE,72,0.0,0.0,84,0.00,,,0.00,Wunderground v.1.15,2013-03-29 08:29:00,
2013-03-29 04:30:00,30.1,25.8,30.24,ENE,72,0.0,0.0,84,0.00,,,0.00,Wunderground v.1.15,2013-03-29 08:30:00,
2013-03-29 04:33:00,30.1,26.1,30.25,ENE,72,0.0,0.0,85,0.00,,,0.00,Wunderground v.1.15,2013-03-29 08:33:00,
2013-03-29 04:34:00,30.1,26.1,30.25,ENE,72,0.0,0.0,85,0.00,,,0.00,Wunderground v.1.15,2013-03-29 08:34:00,
2013-03-29 04:35:00,30.1,26.1,30.25,ENE,72,0.0,0.0,85,0.00,,,0.00,Wunderground v.1.15,2013-03-29 08:35:00,
2013-03-29 04:38:00,30.2,25.9,30.25,ENE,72,0.0,0.0,84,0.00,,,0.00,Wunderground v.1.15,2013-03-29 08:38:00,
2013-03-29 04:39:00,30.2,25.9,30.25,ENE,72,0.0,0.0,84,0.00,,,0.00,Wunderground v.1.15,2013-03-29 08:39:00,
2013-03-29 04:40:00,30.2,25.9,30.25,ENE,72,0.0,0.0,84,0.00,,,0.00,Wunderground v.1.15,2013-03-29 08:40:00,
2013-03-29 04:42:00,30.2,25.9,30.25,ENE,72,0.0,0.0,84,0.00,,,0.00,Wunderground v.1.15,2013-03-29 08:42:00,
2013-03-29 04:43:00,30.2,25.9,30.25,ENE,72,0.0,0.0,84,0.00,,,0.00,Wunderground v.1.15,2013-03-29 08:43:00,
2013-03-29 04:44:00,30.3,26.0,30.25,ENE,72,0.0,0.0,84,0.00,,,0.00,Wunderground v.1.15,2013-03-29 08:44:00,
2013-03-29 04:45:00,30.3,26.0,30.25,ENE,72,0.0,0.0,84,0.00,,,0.00,Wunderground v.1.15,2013-03-29 08:45:00,
2013-03-29 04:47:00,30.3,26.0,30.25,ENE,72,0.0,0.0,84,0.00,,,0.00,Wunderground v.1.15,2013-03-29 08:47:00,
2013-03-29 04:48:00,30.3,26.0,30.25,ENE,72,0.0,0.0,84,0.00,,,0.00,Wunderground v.1.15,2013-03-29 08:48:00,
2013-03-29 04:49:00,30.3,26.0,30.25,ENE,72,0.0,0.0,84,0.00,,,0.00,Wunderground v.1.15,2013-03-29 08:49:00,
2013-03-29 04:50:00,30.3,26.0,30.25,ENE,72,0.0,0.0,84,0.00,,,0.00,Wunderground v.1.15,2013-03-29 08:50:00,
2013-03-29 04:53:00,30.3,26.0,30.25,ENE,72,0.0,0.0,84,0.00,,,0.00,Wunderground v.1.15,2013-03-29 08:53:00,
2013-03-29 04:54:00,30.3,26.0,30.25,ENE,72,0.0,0.0,84,0.00,,,0.00,Wunderground v.1.15,2013-03-29 08:54:00,
2013-03-29 04:55:00,30.3,26.0,30.25,ENE,72,0.0,0.0,84,0.00,,,0.00,Wunderground v.1.15,2013-03-29 08:55:00,
2013-03-29 04:58:00,30.2,25.9,30.25,ENE,72,0.0,0.0,84,0.00,,,0.00,Wunderground v.1.15,2013-03-29 08:58:00,
2013-03-29 04:59:00,30.1,25.8,30.25,ENE,72,0.0,0.0,84,0.00,,,0.00,Wunderground v.1.15,2013-03-29 08:59:00,
2013-03-29 05:00:00,30.1,25.8,30.25,ENE,72,0.0,0.0,84,0.00,,,0.00,Wunderground v.1.15,2013-03-29 09:00:00,
2013-03-29 05:03:00,30.1,26.1,30.25,ENE,72,0.0,0.0,85,0.00,,,0.00,Wunderground v.1.15,2013-03-29 09:03:00,
2013-03-29 05:04:00,30.1,26.1,30.25,ENE,72,0.0,0.0,85,0.00,,,0.00,Wunderground v.1.15,2013-03-29 09:04:00,
2013-03-29 05:06:00,30.1,25.8,30.25,ENE,72,0.0,0.0,84,0.00,,,0.00,Wunderground v.1.15,2013-03-29 09:06:00,
2013-03-29 05:08:00,29.9,25.7,30.25,ENE,72,0.0,0.0,84,0.00,,,0.00,Wunderground v.1.15,2013-03-29 09:08:00,
2013-03-29 05:09:00,29.9,25.7,30.25,ENE,72,0.0,0.0,84,0.00,,,0.00,Wunderground v.1.15,2013-03-29 09:09:00,
2013-03-29 05:12:00,29.8,25.8,30.25,ENE,72,0.0,0.0,85,0.00,,,0.00,Wunderground v.1.15,2013-03-29 09:12:00,
2013-03-29 05:14:00,29.7,25.7,30.25,ENE,72,0.0,0.0,85,0.00,,,0.00,Wunderground v.1.15,2013-03-29 09:14:00,
2013-03-29 05:15:00,29.6,25.6,30.25,ENE,72,0.0,0.0,85,0.00,,,0.00,Wunderground v.1.15,2013-03-29 09:15:00,
2013-03-29 05:17:00,29.6,25.6,30.25,ENE,72,0.0,0.0,85,0.00,,,0.00,Wunderground v.1.15,2013-03-29 09:17:00,
2013-03-29 05:19:00,29.6,25.9,30.25,ENE,72,0.0,0.0,86,0.00,,,0.00,Wunderground v.1.15,2013-03-29 09:19:00,
2013-03-29 05:21:00,29.6,25.9,30.25,ENE,72,0.0,0.0,86,0.00,,,0.00,Wunderground v.1.15,2013-03-29 09:21:00,
2013-03-29 05:22:00,29.6,25.9,30.25,ENE,72,0.0,0.0,86,0.00,,,0.00,Wunderground v.1.15,2013-03-29 09:22:00,
2013-03-29 05:24:00,29.5,25.5,30.25,ENE,72,0.0,0.0,85,0.00,,,0.00,Wunderground v.1.15,2013-03-29 09:24:00,
2013-03-29 05:26:00,29.4,25.7,30.25,ENE,72,0.0,0.0,86,0.00,,,0.00,Wunderground v.1.15,2013-03-29 09:26:00,
2013-03-29 05:27:00,29.4,25.7,30.25,ENE,72,0.0,0.0,86,0.00,,,0.00,Wunderground v.1.15,2013-03-29 09:27:00,
2013-03-29 05:29:00,29.3,25.4,30.25,ENE,72,0.0,0.0,85,0.00,,,0.00,Wunderground v.1.15,2013-03-29 09:29:00,
2013-03-29 05:31:00,29.2,25.3,30.25,ENE,72,0.0,0.0,85,0.00,,,0.00,Wunderground v.1.15,2013-03-29 09:31:00,
2013-03-29 05:32:00,29.2,25.3,30.25,ENE,72,0.0,0.0,85,0.00,,,0.00,Wunderground v.1.15,2013-03-29 09:32:00,
2013-03-29 05:34:00,29.1,25.4,30.25,ENE,72,0.0,0.0,86,0.00,,,0.00,Wunderground v.1.15,2013-03-29 09:34:00,
2013-03-29 05:37:00,29.2,25.8,30.25,ENE,72,0.0,0.0,87,0.00,,,0.00,Wunderground v.1.15,2013-03-29 09:37:00,
2013-03-29 05:39:00,29.2,25.5,30.25,ENE,72,0.0,0.0,86,0.00,,,0.00,Wunderground v.1.15,2013-03-29 09:39:00,
2013-03-29 05:40:00,29.2,25.5,30.25,ENE,72,0.0,0.0,86,0.00,,,0.00,Wunderground v.1.15,2013-03-29 09:40:00,
2013-03-29 05:42:00,29.1,25.4,30.25,ENE,72,0.0,0.0,86,0.00,,,0.00,Wunderground v.1.15,2013-03-29 09:42:00,
2013-03-29 05:43:00,29.1,25.4,30.25,ENE,72,0.0,0.0,86,0.00,,,0.00,Wunderground v.1.15,2013-03-29 09:43:00,
2013-03-29 05:44:00,29.0,25.3,30.25,ENE,72,0.0,0.0,86,0.00,,,0.00,Wunderground v.1.15,2013-03-29 09:44:00,
2013-03-29 05:45:00,29.0,25.3,30.25,ENE,72,0.0,0.0,86,0.00,,,0.00,Wunderground v.1.15,2013-03-29 09:45:00,
2013-03-29 05:47:00,29.0,25.6,30.25,ENE,72,0.0,0.0,87,0.00,,,0.00,Wunderground v.1.15,2013-03-29 09:47:00,
2013-03-29 05:48:00,29.0,25.6,30.25,ENE,72,0.0,0.0,87,0.00,,,0.00,Wunderground v.1.15,2013-03-29 09:48:00,
2013-03-29 05:49:00,29.0,25.6,30.25,ENE,72,0.0,0.0,87,0.00,,,0.00,Wunderground v.1.15,2013-03-29 09:49:00,
2013-03-29 05:50:00,29.0,25.6,30.25,ENE,72,0.0,0.0,87,0.00,,,0.00,Wunderground v.1.15,2013-03-29 09:50:00,
2013-03-29 05:52:00,29.0,25.6,30.25,ENE,72,0.0,0.0,87,0.00,,,0.00,Wunderground v.1.15,2013-03-29 09:52:00,
2013-03-29 05:53:00,28.9,25.5,30.25,ENE,72,0.0,0.0,87,0.00,,,0.00,Wunderground v.1.15,2013-03-29 09:53:00,
2013-03-29 05:54:00,28.9,25.5,30.25,ENE,72,0.0,0.0,87,0.00,,,0.00,Wunderground v.1.15,2013-03-29 09:54:00,
2013-03-29 05:55:00,28.9,25.5,30.25,ENE,72,0.0,0.0,87,0.00,,,0.00,Wunderground v.1.15,2013-03-29 09:55:00,
2013-03-29 05:57:00,28.9,25.5,30.25,ENE,72,0.0,0.0,87,0.00,,,0.00,Wunderground v.1.15,2013-03-29 09:57:00,
2013-03-29 05:58:00,28.8,25.4,30.25,ENE,72,0.0,0.0,87,0.00,,,0.00,Wunderground v.1.15,2013-03-29 09:58:00,
2013-03-29 06:00:00,28.8,25.4,30.25,ENE,72,0.0,0.0,87,0.00,,,0.00,Wunderground v.1.15,2013-03-29 10:00:00,
2013-03-29 06:02:00,28.7,25.3,30.25,ENE,72,0.0,0.0,87,0.00,,,0.00,Wunderground v.1.15,2013-03-29 10:02:00,
2013-03-29 06:03:00,28.6,25.2,30.25,ENE,72,0.0,0.0,87,0.00,,,0.00,Wunderground v.1.15,2013-03-29 10:03:00,
2013-03-29 06:05:00,28.6,25.2,30.25,ENE,72,0.0,0.0,87,0.00,,,0.00,Wunderground v.1.15,2013-03-29 10:05:00,
2013-03-29 06:07:00,28.6,25.2,30.25,ENE,72,0.0,0.0,87,0.00,,,0.00,Wunderground v.1.15,2013-03-29 10:07:00,
2013-03-29 06:08:00,28.6,25.5,30.25,ENE,72,0.0,1.0,88,0.00,,,0.00,Wunderground v.1.15,2013-03-29 10:08:00,
2013-03-29 06:10:00,28.6,25.5,30.25,ENE,72,0.0,0.0,88,0.00,,,0.00,Wunderground v.1.15,2013-03-29 10:10:00,
2013-03-29 06:13:00,28.7,25.6,30.26,ENE,72,0.0,0.0,88,0.00,,,0.00,Wunderground v.1.15,2013-03-29 10:13:00,
2013-03-29 06:15:00,28.8,25.7,30.26,ENE,72,0.0,0.0,88,0.00,,,0.00,Wunderground v.1.15,2013-03-29 10:15:00,
2013-03-29 06:18:00,28.9,25.8,30.26,ENE,72,0.0,0.0,88,0.00,,,0.00,Wunderground v.1.15,2013-03-29 10:18:00,
2013-03-29 06:19:00,28.9,25.8,30.26,ENE,72,0.0,0.0,88,0.00,,,0.00,Wunderground v.1.15,2013-03-29 10:19:00,
2013-03-29 06:20:00,28.9,25.8,30.26,ENE,72,0.0,0.0,88,0.00,,,0.00,Wunderground v.1.15,2013-03-29 10:20:00,
2013-03-29 06:21:00,28.9,25.8,30.26,ENE,72,0.0,0.0,88,0.00,,,0.00,Wunderground v.1.15,2013-03-29 10:21:00,
2013-03-29 06:23:00,28.8,25.7,30.26,ENE,72,0.0,0.0,88,0.00,,,0.00,Wunderground v.1.15,2013-03-29 10:23:00,
2013-03-29 06:24:00,28.8,25.4,30.26,ENE,72,0.0,0.0,87,0.00,,,0.00,Wunderground v.1.15,2013-03-29 10:24:00,
2013-03-29 06:25:00,28.8,25.4,30.26,ENE,72,0.0,0.0,87,0.00,,,0.00,Wunderground v.1.15,2013-03-29 10:25:00,
2013-03-29 06:26:00,28.8,25.4,30.26,ENE,72,0.0,0.0,87,0.00,,,0.00,Wunderground v.1.15,2013-03-29 10:26:00,
2013-03-29 06:29:00,28.8,25.7,30.26,ENE,72,0.0,0.0,88,0.00,,,0.00,Wunderground v.1.15,2013-03-29 10:29:00,
2013-03-29 06:30:00,28.8,25.7,30.26,ENE,72,0.0,0.0,88,0.00,,,0.00,Wunderground v.1.15,2013-03-29 10:30:00,
2013-03-29 06:31:00,28.8,25.7,30.26,ENE,72,0.0,0.0,88,0.00,,,0.00,Wunderground v.1.15,2013-03-29 10:31:00,
2013-03-29 06:34:00,28.7,25.6,30.26,ENE,72,0.0,0.0,88,0.00,,,0.00,Wunderground v.1.15,2013-03-29 10:34:00,
2013-03-29 06:35:00,28.7,25.6,30.26,ENE,72,0.0,0.0,88,0.00,,,0.00,Wunderground v.1.15,2013-03-29 10:35:00,
2013-03-29 06:36:00,28.7,25.6,30.26,ENE,72,0.0,0.0,88,0.00,,,0.00,Wunderground v.1.15,2013-03-29 10:36:00,
2013-03-29 06:39:00,28.6,25.5,30.26,ENE,72,0.0,0.0,88,0.00,,,0.00,Wunderground v.1.15,2013-03-29 10:39:00,
2013-03-29 06:40:00,28.5,25.4,30.26,ENE,72,0.0,0.0,88,0.00,,,0.00,Wunderground v.1.15,2013-03-29 10:40:00,
2013-03-29 06:41:00,28.5,25.4,30.26,ENE,72,0.0,0.0,88,0.00,,,0.00,Wunderground v.1.15,2013-03-29 10:41:00,
2013-03-29 06:44:00,28.5,25.4,30.27,ENE,72,0.0,0.0,88,0.00,,,0.00,Wunderground v.1.15,2013-03-29 10:44:00,
2013-03-29 06:45:00,28.5,25.7,30.27,ENE,72,0.0,0.0,89,0.00,,,0.00,Wunderground v.1.15,2013-03-29 10:45:00,
2013-03-29 06:46:00,28.5,25.7,30.27,ENE,72,0.0,0.0,89,0.00,,,0.00,Wunderground v.1.15,2013-03-29 10:46:00,
2013-03-29 06:49:00,28.5,25.7,30.26,ENE,72,0.0,0.0,89,0.00,,,0.00,Wunderground v.1.15,2013-03-29 10:49:00,
2013-03-29 06:50:00,28.4,25.3,30.26,ENE,72,0.0,0.0,88,0.00,,,0.00,Wunderground v.1.15,2013-03-29 10:50:00,
2013-03-29 06:52:00,28.4,25.3,30.26,ENE,72,0.0,0.0,88,0.00,,,0.00,Wunderground v.1.15,2013-03-29 10:52:00,
2013-03-29 06:54:00,28.3,25.5,30.26,ENE,72,0.0,0.0,89,0.00,,,0.00,Wunderground v.1.15,2013-03-29 10:54:00,
2013-03-29 06:55:00,28.3,25.5,30.27,ENE,72,0.0,0.0,89,0.00,,,0.00,Wunderground v.1.15,2013-03-29 10:55:00,
2013-03-29 06:56:00,28.3,25.5,30.27,ENE,72,0.0,0.0,89,0.00,,,0.00,Wunderground v.1.15,2013-03-29 10:56:00,
2013-03-29 06:57:00,28.3,25.5,30.27,ENE,72,0.0,0.0,89,0.00,,,0.00,Wunderground v.1.15,2013-03-29 10:57:00,
2013-03-29 06:59:00,28.4,25.6,30.27,ENE,72,0.0,0.0,89,0.00,,,0.00,Wunderground v.1.15,2013-03-29 10:59:00,
2013-03-29 07:01:00,28.4,25.6,30.27,ENE,72,0.0,0.0,89,0.00,,,0.00,Wunderground v.1.15,2013-03-29 11:01:00,
2013-03-29 07:02:00,28.4,25.6,30.27,ENE,72,0.0,0.0,89,0.00,,,0.00,Wunderground v.1.15,2013-03-29 11:02:00,
2013-03-29 07:04:00,28.4,25.6,30.27,ENE,72,1.0,1.0,89,0.00,,,0.00,Wunderground v.1.15,2013-03-29 11:04:00,
2013-03-29 07:06:00,28.4,25.6,30.27,ENE,72,0.0,1.0,89,0.00,,,0.00,Wunderground v.1.15,2013-03-29 11:06:00,
2013-03-29 07:07:00,28.4,25.6,30.27,ENE,72,0.0,1.0,89,0.00,,,0.00,Wunderground v.1.15,2013-03-29 11:07:00,
2013-03-29 07:09:00,28.5,25.7,30.27,ENE,72,0.0,1.0,89,0.00,,,0.00,Wunderground v.1.15,2013-03-29 11:09:00,
2013-03-29 07:12:00,28.5,25.7,30.27,ENE,72,0.0,1.0,89,0.00,,,0.00,Wunderground v.1.15,2013-03-29 11:12:00,
2013-03-29 07:14:00,28.5,25.7,30.27,ENE,72,0.0,1.0,89,0.00,,,0.00,Wunderground v.1.15,2013-03-29 11:14:00,
2013-03-29 07:17:00,28.4,25.6,30.27,ENE,72,0.0,1.0,89,0.00,,,0.00,Wunderground v.1.15,2013-03-29 11:17:00,
2013-03-29 07:19:00,28.4,25.6,30.27,ENE,72,0.0,1.0,89,0.00,,,0.00,Wunderground v.1.15,2013-03-29 11:19:00,
2013-03-29 07:22:00,28.3,25.5,30.28,ENE,72,0.0,0.0,89,0.00,,,0.00,Wunderground v.1.15,2013-03-29 11:22:00,
2013-03-29 07:23:00,28.3,25.5,30.28,ENE,72,0.0,0.0,89,0.00,,,0.00,Wunderground v.1.15,2013-03-29 11:23:00,
2013-03-29 07:25:00,28.3,25.5,30.27,ENE,72,0.0,0.0,89,0.00,,,0.00,Wunderground v.1.15,2013-03-29 11:25:00,
2013-03-29 07:27:00,28.3,25.5,30.28,ENE,72,0.0,0.0,89,0.00,,,0.00,Wunderground v.1.15,2013-03-29 11:27:00,
2013-03-29 07:28:00,28.3,25.5,30.28,ENE,72,0.0,0.0,89,0.00,,,0.00,Wunderground v.1.15,2013-03-29 11:28:00,
2013-03-29 07:30:00,28.3,25.5,30.28,ENE,72,0.0,0.0,89,0.00,,,0.00,Wunderground v.1.15,2013-03-29 11:30:00,
2013-03-29 07:32:00,28.3,25.7,30.28,ENE,72,0.0,0.0,90,0.00,,,0.00,Wunderground v.1.15,2013-03-29 11:32:00,
2013-03-29 07:33:00,28.3,25.7,30.28,ENE,72,0.0,0.0,90,0.00,,,0.00,Wunderground v.1.15,2013-03-29 11:33:00,
2013-03-29 07:35:00,28.4,25.8,30.28,ENE,72,0.0,0.0,90,0.00,,,0.00,Wunderground v.1.15,2013-03-29 11:35:00,
2013-03-29 07:37:00,28.6,26.0,30.28,ENE,72,0.0,0.0,90,0.00,,,0.00,Wunderground v.1.15,2013-03-29 11:37:00,
2013-03-29 07:38:00,28.6,26.0,30.28,ENE,72,0.0,0.0,90,0.00,,,0.00,Wunderground v.1.15,2013-03-29 11:38:00,
2013-03-29 07:40:00,28.9,26.3,30.28,ENE,72,0.0,0.0,90,0.00,,,0.00,Wunderground v.1.15,2013-03-29 11:40:00,
2013-03-29 07:43:00,29.5,27.2,30.28,ENE,72,0.0,0.0,91,0.00,,,0.00,Wunderground v.1.15,2013-03-29 11:43:00,
2013-03-29 07:45:00,29.9,27.3,30.28,ENE,72,0.0,0.0,90,0.00,,,0.00,Wunderground v.1.15,2013-03-29 11:45:00,
2013-03-29 07:48:00,30.3,27.4,30.28,ENE,72,0.0,0.0,89,0.00,,,0.00,Wunderground v.1.15,2013-03-29 11:48:00,
2013-03-29 07:49:00,30.4,27.5,30.28,ENE,72,0.0,1.0,89,0.00,,,0.00,Wunderground v.1.15,2013-03-29 11:49:00,
2013-03-29 07:50:00,30.6,27.7,30.28,ENE,72,0.0,0.0,89,0.00,,,0.00,Wunderground v.1.15,2013-03-29 11:50:00,
2013-03-29 07:53:00,31.1,28.0,30.29,ENE,72,0.0,0.0,88,0.00,,,0.00,Wunderground v.1.15,2013-03-29 11:53:00,
2013-03-29 07:54:00,31.2,28.1,30.29,ENE,72,0.0,0.0,88,0.00,,,0.00,Wunderground v.1.15,2013-03-29 11:54:00,
2013-03-29 07:55:00,31.4,28.3,30.29,ENE,72,0.0,0.0,88,0.00,,,0.00,Wunderground v.1.15,2013-03-29 11:55:00,
2013-03-29 07:58:00,31.9,28.5,30.29,ENE,72,0.0,0.0,87,0.00,,,0.00,Wunderground v.1.15,2013-03-29 11:58:00,
2013-03-29 07:59:00,32.1,28.7,30.29,ENE,72,0.0,0.0,87,0.00,,,0.00,Wunderground v.1.15,2013-03-29 11:59:00,
2013-03-29 08:00:00,32.3,28.6,30.29,ENE,72,0.0,0.0,86,0.00,,,0.00,Wunderground v.1.15,2013-03-29 12:00:00,
2013-03-29 08:03:00,32.7,28.7,30.29,ENE,72,0.0,0.0,85,0.00,,,0.00,Wunderground v.1.15,2013-03-29 12:03:00,
2013-03-29 08:04:00,32.8,28.5,30.29,ENE,72,0.0,0.0,84,0.00,,,0.00,Wunderground v.1.15,2013-03-29 12:04:00,
2013-03-29 08:05:00,32.9,28.6,30.29,ENE,72,0.0,0.0,84,0.00,,,0.00,Wunderground v.1.15,2013-03-29 12:05:00,
2013-03-29 08:08:00,33.0,28.4,30.29,ENE,72,0.0,0.0,83,0.00,,,0.00,Wunderground v.1.15,2013-03-29 12:08:00,
2013-03-29 08:09:00,33.1,28.5,30.29,ENE,72,0.0,0.0,83,0.00,,,0.00,Wunderground v.1.15,2013-03-29 12:09:00,
2013-03-29 08:10:00,33.2,28.6,30.29,ENE,72,0.0,0.0,83,0.00,,,0.00,Wunderground v.1.15,2013-03-29 12:10:00,
2013-03-29 08:13:00,33.5,28.9,30.29,ENE,72,0.0,0.0,83,0.00,,,0.00,Wunderground v.1.15,2013-03-29 12:13:00,
2013-03-29 08:14:00,33.5,28.9,30.29,ENE,72,0.0,0.0,83,0.00,,,0.00,Wunderground v.1.15,2013-03-29 12:14:00,
2013-03-29 08:15:00,33.5,28.9,30.29,ENE,72,0.0,0.0,83,0.00,,,0.00,Wunderground v.1.15,2013-03-29 12:15:00,
2013-03-29 08:18:00,33.7,29.1,30.29,ENE,72,0.0,0.0,83,0.00,,,0.00,Wunderground v.1.15,2013-03-29 12:18:00,
2013-03-29 08:19:00,33.7,29.1,30.29,ENE,72,0.0,0.0,83,0.00,,,0.00,Wunderground v.1.15,2013-03-29 12:19:00,
2013-03-29 08:20:00,33.7,29.1,30.29,ENE,72,0.0,0.0,83,0.00,,,0.00,Wunderground v.1.15,2013-03-29 12:20:00,
2013-03-29 08:23:00,33.8,29.2,30.29,ENE,72,0.0,0.0,83,0.00,,,0.00,Wunderground v.1.15,2013-03-29 12:23:00,
2013-03-29 08:24:00,33.9,29.3,30.29,ENE,72,0.0,0.0,83,0.00,,,0.00,Wunderground v.1.15,2013-03-29 12:24:00,
2013-03-29 08:25:00,33.9,29.3,30.29,ENE,72,0.0,0.0,83,0.00,,,0.00,Wunderground v.1.15,2013-03-29 12:25:00,
2013-03-29 08:29:00,33.9,29.6,30.29,ENE,72,0.0,0.0,84,0.00,,,0.00,Wunderground v.1.15,2013-03-29 12:29:00,
2013-03-29 08:30:00,34.0,29.7,30.29,ENE,72,0.0,0.0,84,0.00,,,0.00,Wunderground v.1.15,2013-03-29 12:30:00,
2013-03-29 08:34:00,34.2,30.2,30.29,ENE,72,0.0,0.0,85,0.00,,,0.00,Wunderground v.1.15,2013-03-29 12:34:00,
2013-03-29 08:35:00,34.3,30.3,30.29,ENE,72,0.0,0.0,85,0.00,,,0.00,Wunderground v.1.15,2013-03-29 12:35:00,
2013-03-29 08:39:00,34.5,30.5,30.29,ESE,108,0.0,2.0,85,0.00,,,0.00,Wunderground v.1.15,2013-03-29 12:39:00,
2013-03-29 08:40:00,34.6,30.6,30.29,ESE,109,0.0,0.0,85,0.00,,,0.00,Wunderground v.1.15,2013-03-29 12:40:00,
2013-03-29 08:44:00,34.8,30.8,30.29,ESE,108,1.0,1.0,85,0.00,,,0.00,Wunderground v.1.15,2013-03-29 12:44:00,
2013-03-29 08:45:00,34.9,30.8,30.29,ESE,109,0.0,1.0,85,0.00,,,0.00,Wunderground v.1.15,2013-03-29 12:45:00,
2013-03-29 08:49:00,35.4,31.0,30.29,SSE,158,0.0,1.0,84,0.00,,,0.00,Wunderground v.1.15,2013-03-29 12:49:00,
2013-03-29 08:50:00,35.6,31.2,30.29,SSE,158,0.0,0.0,84,0.00,,,0.00,Wunderground v.1.15,2013-03-29 12:50:00,
2013-03-29 08:51:00,35.6,31.2,30.29,SSE,158,0.0,0.0,84,0.00,,,0.00,Wunderground v.1.15,2013-03-29 12:51:00,
2013-03-29 08:54:00,36.0,31.3,30.29,SSE,158,0.0,0.0,83,0.00,,,0.00,Wunderground v.1.15,2013-03-29 12:54:00,
2013-03-29 08:55:00,36.1,31.4,30.29,SSE,158,0.0,0.0,83,0.00,,,0.00,Wunderground v.1.15,2013-03-29 12:55:00,
2013-03-29 08:57:00,36.2,31.2,30.29,SSE,158,0.0,0.0,82,0.00,,,0.00,Wunderground v.1.15,2013-03-29 12:57:00,
2013-03-29 08:59:00,36.5,31.2,30.29,SSE,158,0.0,0.0,81,0.00,,,0.00,Wunderground v.1.15,2013-03-29 12:59:00,
2013-03-29 09:00:00,36.6,31.3,30.29,SSE,158,0.0,0.0,81,0.00,,,0.00,Wunderground v.1.15,2013-03-29 13:00:00,
2013-03-29 09:01:00,36.6,31.3,30.29,SSE,158,0.0,0.0,81,0.00,,,0.00,Wunderground v.1.15,2013-03-29 13:01:00,
2013-03-29 09:03:00,36.8,31.2,30.29,SSE,158,0.0,0.0,80,0.00,,,0.00,Wunderground v.1.15,2013-03-29 13:03:00,
2013-03-29 09:05:00,37.0,31.4,30.29,SSE,158,0.0,0.0,80,0.00,,,0.00,Wunderground v.1.15,2013-03-29 13:05:00,
2013-03-29 09:07:00,37.2,31.6,30.29,SSE,158,0.0,0.0,80,0.00,,,0.00,Wunderground v.1.15,2013-03-29 13:07:00,
2013-03-29 09:08:00,37.4,31.5,30.29,SSE,158,0.0,0.0,79,0.00,,,0.00,Wunderground v.1.15,2013-03-29 13:08:00,
2013-03-29 09:10:00,37.6,31.4,30.29,SSE,158,0.0,0.0,78,0.00,,,0.00,Wunderground v.1.15,2013-03-29 13:10:00,
2013-03-29 09:11:00,37.9,31.3,30.29,SSE,158,0.0,0.0,77,0.00,,,0.00,Wunderground v.1.15,2013-03-29 13:11:00,
2013-03-29 09:12:00,37.9,31.3,30.29,SSE,158,0.0,0.0,77,0.00,,,0.00,Wunderground v.1.15,2013-03-29 13:12:00,
2013-03-29 09:13:00,38.2,31.6,30.29,SSE,158,0.0,0.0,77,0.00,,,0.00,Wunderground v.1.15,2013-03-29 13:13:00,
2013-03-29 09:15:00,38.5,31.6,30.29,SSE,158,0.0,0.0,76,0.00,,,0.00,Wunderground v.1.15,2013-03-29 13:15:00,
2013-03-29 09:17:00,38.8,31.9,30.29,SSE,158,0.0,0.0,76,0.00,,,0.00,Wunderground v.1.15,2013-03-29 13:17:00,
2013-03-29 09:18:00,39.0,31.7,30.29,SSE,158,0.0,0.0,75,0.00,,,0.00,Wunderground v.1.15,2013-03-29 13:18:00,
2013-03-29 09:20:00,39.2,31.6,30.29,West,266,0.0,1.0,74,0.00,,,0.00,Wunderground v.1.15,2013-03-29 13:20:00,
2013-03-29 09:22:00,39.7,31.4,30.29,SW,233,0.0,2.0,72,0.00,,,0.00,Wunderground v.1.15,2013-03-29 13:22:00,
2013-03-29 09:23:00,40.1,31.4,30.29,North,6,0.0,2.0,71,0.00,,,0.00,Wunderground v.1.15,2013-03-29 13:23:00,
2013-03-29 09:25:00,40.4,31.4,30.29,NNE,15,1.0,2.0,70,0.00,,,0.00,Wunderground v.1.15,2013-03-29 13:25:00,
2013-03-29 09:27:00,40.8,31.8,30.29,NNE,14,0.0,2.0,70,0.00,,,0.00,Wunderground v.1.15,2013-03-29 13:27:00,
2013-03-29 09:29:00,41.2,31.8,30.29,NNE,16,0.0,2.0,69,0.00,,,0.00,Wunderground v.1.15,2013-03-29 13:29:00,
2013-03-29 09:30:00,41.3,31.9,30.29,North,11,0.0,1.0,69,0.00,,,0.00,Wunderground v.1.15,2013-03-29 13:30:00,
2013-03-29 09:32:00,41.7,31.9,30.29,WNW,289,0.0,1.0,68,0.00,,,0.00,Wunderground v.1.15,2013-03-29 13:32:00,
2013-03-29 09:33:00,41.8,32.0,30.29,WNW,289,0.0,1.0,68,0.00,,,0.00,Wunderground v.1.15,2013-03-29 13:33:00,
2013-03-29 09:34:00,42.0,31.1,30.29,WSW,255,1.0,4.0,65,0.00,,,0.00,Wunderground v.1.15,2013-03-29 13:34:00,
2013-03-29 09:35:00,42.2,31.3,30.29,SW,225,1.0,4.0,65,0.00,,,0.00,Wunderground v.1.15,2013-03-29 13:35:00,
2013-03-29 09:37:00,42.6,31.7,30.29,West,269,0.0,4.0,65,0.00,,,0.00,Wunderground v.1.15,2013-03-29 13:37:00,
2013-03-29 09:38:00,42.8,31.5,30.29,West,270,0.0,4.0,64,0.00,,,0.00,Wunderground v.1.15,2013-03-29 13:38:00,
2013-03-29 09:39:00,42.9,31.6,30.29,South,179,0.0,4.0,64,0.00,,,0.00,Wunderground v.1.15,2013-03-29 13:39:00,
2013-03-29 09:40:00,43.1,31.4,30.29,South,179,0.0,1.0,63,0.00,,,0.00,Wunderground v.1.15,2013-03-29 13:40:00,
2013-03-29 09:43:00,43.5,30.9,30.28,SW,214,3.0,4.0,61,0.00,,,0.00,Wunderground v.1.15,2013-03-29 13:43:00,
2013-03-29 09:44:00,43.7,29.9,30.29,SW,229,5.0,6.0,58,0.00,,,0.00,Wunderground v.1.15,2013-03-29 13:44:00,
2013-03-29 09:45:00,43.9,30.1,30.29,WSW,255,1.0,6.0,58,0.00,,,0.00,Wunderground v.1.15,2013-03-29 13:45:00,
2013-03-29 09:48:00,44.4,30.5,30.29,SSW,210,0.0,6.0,58,0.00,,,0.00,Wunderground v.1.15,2013-03-29 13:48:00,
2013-03-29 09:49:00,44.5,30.2,30.29,SSW,193,1.0,6.0,57,0.00,,,0.00,Wunderground v.1.15,2013-03-29 13:49:00,
2013-03-29 09:50:00,44.7,30.4,30.29,SSW,208,1.0,1.0,57,0.00,,,0.00,Wunderground v.1.15,2013-03-29 13:50:00,
2013-03-29 09:53:00,45.0,30.7,30.28,SW,224,3.0,5.0,57,0.00,,,0.00,Wunderground v.1.15,2013-03-29 13:53:00,
2013-03-29 09:54:00,45.1,29.9,30.28,NNE,22,1.0,5.0,55,0.00,,,0.00,Wunderground v.1.15,2013-03-29 13:54:00,
2013-03-29 09:55:00,45.2,30.0,30.28,NNE,27,0.0,5.0,55,0.00,,,0.00,Wunderground v.1.15,2013-03-29 13:55:00,
2013-03-29 09:56:00,45.3,30.5,30.28,NNE,27,1.0,5.0,56,0.00,,,0.00,Wunderground v.1.15,2013-03-29 13:56:00,
2013-03-29 09:58:00,45.5,29.8,30.28,WSW,246,1.0,5.0,54,0.00,,,0.00,Wunderground v.1.15,2013-03-29 13:58:00,
2013-03-29 09:59:00,45.6,29.9,30.28,WSW,250,1.0,5.0,54,0.00,,,0.00,Wunderground v.1.15,2013-03-29 13:59:00,
2013-03-29 10:00:00,45.7,30.0,30.28,WSW,252,0.0,1.0,54,0.00,,,0.00,Wunderground v.1.15,2013-03-29 14:00:00,
2013-03-29 10:01:00,45.8,30.1,30.28,West,276,2.0,4.0,54,0.00,,,0.00,Wunderground v.1.15,2013-03-29 14:01:00,
2013-03-29 10:03:00,46.0,29.8,30.28,SSE,153,1.0,4.0,53,0.00,,,0.00,Wunderground v.1.15,2013-03-29 14:03:00,
2013-03-29 10:04:00,46.1,29.9,30.28,NE,39,1.0,4.0,53,0.00,,,0.00,Wunderground v.1.15,2013-03-29 14:04:00,
2013-03-29 10:05:00,46.1,29.9,30.28,NE,39,0.0,4.0,53,0.00,,,0.00,Wunderground v.1.15,2013-03-29 14:05:00,
2013-03-29 10:06:00,46.2,29.5,30.28,ENE,57,1.0,4.0,52,0.00,,,0.00,Wunderground v.1.15,2013-03-29 14:06:00,
2013-03-29 10:08:00,46.4,29.2,30.28,WSW,242,0.0,4.0,51,0.00,,,0.00,Wunderground v.1.15,2013-03-29 14:08:00,
2013-03-29 10:09:00,46.5,29.3,30.28,SSW,209,0.0,4.0,51,0.00,,,0.00,Wunderground v.1.15,2013-03-29 14:09:00,
2013-03-29 10:10:00,46.6,29.4,30.28,South,191,1.0,1.0,51,0.00,,,0.00,Wunderground v.1.15,2013-03-29 14:10:00,
2013-03-29 10:12:00,46.7,29.5,30.28,WSW,239,2.0,2.0,51,0.00,,,0.00,Wunderground v.1.15,2013-03-29 14:12:00,
2013-03-29 10:13:00,47.0,29.8,30.28,South,173,1.0,2.0,51,0.00,,,0.00,Wunderground v.1.15,2013-03-29 14:13:00,
2013-03-29 10:15:00,47.3,29.1,30.28,WSW,242,0.0,4.0,49,0.00,,,0.00,Wunderground v.1.15,2013-03-29 14:15:00,
2013-03-29 10:17:00,47.4,29.2,30.28,West,276,0.0,4.0,49,0.00,,,0.00,Wunderground v.1.15,2013-03-29 14:17:00,
2013-03-29 10:18:00,47.5,29.8,30.28,SSW,201,0.0,4.0,50,0.00,,,0.00,Wunderground v.1.15,2013-03-29 14:18:00,
2013-03-29 10:20:00,47.7,29.5,30.28,SSW,205,0.0,2.0,49,0.00,,,0.00,Wunderground v.1.15,2013-03-29 14:20:00,
2013-03-29 10:22:00,47.7,29.5,30.28,SSW,205,0.0,2.0,49,0.00,,,0.00,Wunderground v.1.15,2013-03-29 14:22:00,
2013-03-29 10:23:00,47.9,29.6,30.28,WSW,252,0.0,2.0,49,0.00,,,0.00,Wunderground v.1.15,2013-03-29 14:23:00,
2013-03-29 10:25:00,48.1,29.8,30.27,NE,44,1.0,5.0,49,0.00,,,0.00,Wunderground v.1.15,2013-03-29 14:25:00,
2013-03-29 10:27:00,48.3,30.0,30.27,SSW,212,2.0,5.0,49,0.00,,,0.00,Wunderground v.1.15,2013-03-29 14:27:00,
2013-03-29 10:28:00,48.4,29.6,30.27,WNW,282,2.0,5.0,48,0.00,,,0.00,Wunderground v.1.15,2013-03-29 14:28:00,
2013-03-29 10:30:00,48.7,29.4,30.27,South,184,1.0,2.0,47,0.00,,,0.00,Wunderground v.1.15,2013-03-29 14:30:00,
2013-03-29 10:33:00,49.0,29.6,30.27,WSW,250,1.0,2.0,47,0.00,,,0.00,Wunderground v.1.15,2013-03-29 14:33:00,
2013-03-29 10:35:00,49.3,29.9,30.27,South,173,2.0,2.0,47,0.00,,,0.00,Wunderground v.1.15,2013-03-29 14:35:00,
2013-03-29 10:36:00,49.3,29.4,30.27,SSE,157,2.0,2.0,46,0.00,,,0.00,Wunderground v.1.15,2013-03-29 14:36:00,
2013-03-29 10:38:00,49.5,29.6,30.27,ENE,65,0.0,2.0,46,0.00,,,0.00,Wunderground v.1.15,2013-03-29 14:38:00,
2013-03-29 10:41:00,49.6,29.6,30.27,SSW,203,1.0,1.0,46,0.00,,,0.00,Wunderground v.1.15,2013-03-29 14:41:00,
2013-03-29 10:43:00,49.8,29.3,30.27,SW,233,0.0,1.0,45,0.00,,,0.00,Wunderground v.1.15,2013-03-29 14:43:00,
2013-03-29 10:46:00,50.1,29.0,30.27,West,261,1.0,3.0,44,0.00,,,0.00,Wunderground v.1.15,2013-03-29 14:46:00,
2013-03-29 10:47:00,50.1,29.6,30.27,SW,231,1.0,3.0,45,0.00,,,0.00,Wunderground v.1.15,2013-03-29 14:47:00,
2013-03-29 10:48:00,50.3,29.2,30.27,WSW,239,1.0,3.0,44,0.00,,,0.00,Wunderground v.1.15,2013-03-29 14:48:00,
2013-03-29 10:51:00,50.5,28.2,30.27,WNW,285,2.0,2.0,42,0.00,,,0.00,Wunderground v.1.15,2013-03-29 14:51:00,
2013-03-29 10:52:00,50.6,27.7,30.27,West,260,1.0,2.0,41,0.00,,,0.00,Wunderground v.1.15,2013-03-29 14:52:00,
2013-03-29 10:53:00,50.6,27.7,30.27,NNW,338,1.0,2.0,41,0.00,,,0.00,Wunderground v.1.15,2013-03-29 14:53:00,
2013-03-29 10:54:00,50.6,27.7,30.27,WNW,285,1.0,2.0,41,0.00,,,0.00,Wunderground v.1.15,2013-03-29 14:54:00,
2013-03-29 10:56:00,50.6,27.7,30.27,NE,36,3.0,4.0,41,0.00,,,0.00,Wunderground v.1.15,2013-03-29 14:56:00,
2013-03-29 10:58:00,50.7,27.8,30.27,ESE,103,0.0,4.0,41,0.00,,,0.00,Wunderground v.1.15,2013-03-29 14:58:00,
2013-03-29 10:59:00,50.7,27.2,30.27,NNE,16,3.0,5.0,40,0.00,,,0.00,Wunderground v.1.15,2013-03-29 14:59:00,
2013-03-29 11:01:00,50.7,27.2,30.27,NNE,23,2.0,5.0,40,0.00,,,0.00,Wunderground v.1.15,2013-03-29 15:01:00,
2013-03-29 11:03:00,50.8,27.3,30.27,WSW,242,1.0,5.0,40,0.00,,,0.00,Wunderground v.1.15,2013-03-29 15:03:00,
2013-03-29 11:05:00,50.8,27.3,30.27,WSW,240,1.0,5.0,40,0.00,,,0.00,Wunderground v.1.15,2013-03-29 15:05:00,
2013-03-29 11:06:00,50.9,28.0,30.27,North,4,2.0,5.0,41,0.00,,,0.00,Wunderground v.1.15,2013-03-29 15:06:00,
2013-03-29 11:08:00,51.1,28.2,30.27,SSW,203,2.0,5.0,41,0.00,,,0.00,Wunderground v.1.15,2013-03-29 15:08:00,
2013-03-29 11:09:00,51.2,28.3,30.27,SSE,147,1.0,5.0,41,0.00,,,0.00,Wunderground v.1.15,2013-03-29 15:09:00,
2013-03-29 11:10:00,51.3,28.4,30.27,NNW,333,4.0,6.0,41,0.00,,,0.00,Wunderground v.1.15,2013-03-29 15:10:00,
2013-03-29 11:11:00,51.4,27.9,30.27,NNE,18,4.0,6.0,40,0.00,,,0.00,Wunderground v.1.15,2013-03-29 15:11:00,
2013-03-29 11:14:00,51.4,27.9,30.27,NNE,18,0.0,6.0,40,0.00,,,0.00,Wunderground v.1.15,2013-03-29 15:14:00,
2013-03-29 11:15:00,51.4,28.5,30.27,South,184,0.0,6.0,41,0.00,,,0.00,Wunderground v.1.15,2013-03-29 15:15:00,
2013-03-29 11:16:00,51.5,27.9,30.27,West,262,1.0,6.0,40,0.00,,,0.00,Wunderground v.1.15,2013-03-29 15:16:00,
2013-03-29 11:19:00,51.6,28.6,30.27,WSW,249,2.0,6.0,41,0.00,,,0.00,Wunderground v.1.15,2013-03-29 15:19:00,
2013-03-29 11:20:00,51.7,27.5,30.27,SW,230,1.0,3.0,39,0.00,,,0.00,Wunderground v.1.15,2013-03-29 15:20:00,
2013-03-29 11:22:00,51.8,28.2,30.27,East,81,5.0,5.0,40,0.00,,,0.00,Wunderground v.1.15,2013-03-29 15:22:00,
2013-03-29 11:24:00,51.8,27.6,30.27,ESE,113,0.0,5.0,39,0.00,,,0.00,Wunderground v.1.15,2013-03-29 15:24:00,
2013-03-29 11:26:00,52.0,29.0,30.27,NW,318,1.0,5.0,41,0.00,,,0.00,Wunderground v.1.15,2013-03-29 15:26:00,
2013-03-29 11:27:00,52.1,28.5,30.27,SSW,207,1.0,5.0,40,0.00,,,0.00,Wunderground v.1.15,2013-03-29 15:27:00,
2013-03-29 11:29:00,52.3,28.7,30.27,SSW,203,2.0,5.0,40,0.00,,,0.00,Wunderground v.1.15,2013-03-29 15:29:00,
2013-03-29 11:30:00,52.3,28.7,30.27,SW,218,0.0,2.0,40,0.00,,,0.00,Wunderground v.1.15,2013-03-29 15:30:00,
2013-03-29 11:31:00,52.4,28.8,30.27,South,169,1.0,2.0,40,0.00,,,0.00,Wunderground v.1.15,2013-03-29 15:31:00,
2013-03-29 11:32:00,52.5,28.2,30.27,South,170,1.0,3.0,39,0.00,,,0.00,Wunderground v.1.15,2013-03-29 15:32:00,
2013-03-29 11:34:00,52.6,28.3,30.27,South,190,1.0,3.0,39,0.00,,,0.00,Wunderground v.1.15,2013-03-29 15:34:00,
2013-03-29 11:35:00,52.6,28.3,30.27,SW,230,2.0,3.0,39,0.00,,,0.00,Wunderground v.1.15,2013-03-29 15:35:00,
2013-03-29 11:36:00,52.7,29.0,30.27,SSE,167,2.0,3.0,40,0.00,,,0.00,Wunderground v.1.15,2013-03-29 15:36:00,
2013-03-29 11:37:00,52.8,28.5,30.27,SSW,200,2.0,3.0,39,0.00,,,0.00,Wunderground v.1.15,2013-03-29 15:37:00,
2013-03-29 11:39:00,52.8,27.9,30.27,SSE,158,2.0,7.0,38,0.00,,,0.00,Wunderground v.1.15,2013-03-29 15:39:00,
2013-03-29 11:40:00,52.7,27.8,30.27,ESE,115,3.0,3.0,38,0.00,,,0.00,Wunderground v.1.15,2013-03-29 15:40:00,
2013-03-29 11:41:00,52.7,28.4,30.27,NNW,347,3.0,5.0,39,0.00,,,0.00,Wunderground v.1.15,2013-03-29 15:41:00,
2013-03-29 11:44:00,52.6,28.3,30.26,SW,218,3.0,5.0,39,0.00,,,0.00,Wunderground v.1.15,2013-03-29 15:44:00,
2013-03-29 11:45:00,52.7,28.4,30.26,West,273,1.0,5.0,39,0.00,,,0.00,Wunderground v.1.15,2013-03-29 15:45:00,
2013-03-29 11:46:00,52.8,28.5,30.26,SSW,202,1.0,5.0,39,0.00,,,0.00,Wunderground v.1.15,2013-03-29 15:46:00,
2013-03-29 11:49:00,52.9,28.6,30.26,NW,317,1.0,5.0,39,0.00,,,0.00,Wunderground v.1.15,2013-03-29 15:49:00,
2013-03-29 11:50:00,53.0,28.7,30.26,NE,53,2.0,5.0,39,0.00,,,0.00,Wunderground v.1.15,2013-03-29 15:50:00,
2013-03-29 11:51:00,53.0,28.0,30.26,NE,39,0.0,4.0,38,0.00,,,0.00,Wunderground v.1.15,2013-03-29 15:51:00,
2013-03-29 11:54:00,53.2,28.2,30.26,West,263,1.0,5.0,38,0.00,,,0.00,Wunderground v.1.15,2013-03-29 15:54:00,
2013-03-29 11:55:00,53.2,28.9,30.25,SW,218,2.0,5.0,39,0.00,,,0.00,Wunderground v.1.15,2013-03-29 15:55:00,
2013-03-29 11:56:00,53.3,28.3,30.25,NE,43,4.0,5.0,38,0.00,,,0.00,Wunderground v.1.15,2013-03-29 15:56:00,
2013-03-29 11:59:00,53.6,28.6,30.25,North,8,3.0,5.0,38,0.00,,,0.00,Wunderground v.1.15,2013-03-29 15:59:00,
2013-03-29 12:00:00,53.6,28.6,30.25,NNW,330,2.0,3.0,38,0.00,,,0.00,Wunderground v.1.15,2013-03-29 16:00:00,
2013-03-29 12:02:00,53.6,28.6,30.25,ENE,68,1.0,3.0,38,0.00,,,0.00,Wunderground v.1.15,2013-03-29 16:02:00,
2013-03-29 12:04:00,53.7,28.7,30.25,SSW,203,4.0,5.0,38,0.00,,,0.00,Wunderground v.1.15,2013-03-29 16:04:00,
2013-03-29 12:05:00,53.7,27.4,30.25,ENE,65,2.0,5.0,36,0.00,,,0.00,Wunderground v.1.15,2013-03-29 16:05:00,
2013-03-29 12:07:00,53.8,28.1,30.25,SW,236,3.0,5.0,37,0.00,,,0.00,Wunderground v.1.15,2013-03-29 16:07:00,
2013-03-29 12:10:00,53.8,28.1,30.25,SSW,210,2.0,5.0,37,0.00,,,0.00,Wunderground v.1.15,2013-03-29 16:10:00,
2013-03-29 12:11:00,53.8,28.1,30.25,WSW,248,2.0,2.0,37,0.00,,,0.00,Wunderground v.1.15,2013-03-29 16:11:00,
2013-03-29 12:12:00,54.0,29.6,30.25,ENE,65,3.0,4.0,39,0.00,,,0.00,Wunderground v.1.15,2013-03-29 16:12:00,
2013-03-29 12:15:00,54.2,27.8,30.25,South,172,0.0,4.0,36,0.00,,,0.00,Wunderground v.1.15,2013-03-29 16:15:00,
2013-03-29 12:17:00,54.2,28.5,30.25,WSW,237,3.0,5.0,37,0.00,,,0.00,Wunderground v.1.15,2013-03-29 16:17:00,
2013-03-29 12:20:00,54.2,27.8,30.25,SSW,203,1.0,2.0,36,0.00,,,0.00,Wunderground v.1.15,2013-03-29 16:20:00,
2013-03-29 12:21:00,54.2,28.5,30.25,SW,219,2.0,3.0,37,0.00,,,0.00,Wunderground v.1.15,2013-03-29 16:21:00,
2013-03-29 12:22:00,54.3,28.6,30.25,SW,214,6.0,6.0,37,0.00,,,0.00,Wunderground v.1.15,2013-03-29 16:22:00,
2013-03-29 12:23:00,54.2,27.8,30.25,South,190,2.0,6.0,36,0.00,,,0.00,Wunderground v.1.15,2013-03-29 16:23:00,
2013-03-29 12:25:00,54.2,27.8,30.25,SSW,208,1.0,6.0,36,0.00,,,0.00,Wunderground v.1.15,2013-03-29 16:25:00,
2013-03-29 12:26:00,54.3,28.6,30.25,South,184,1.0,6.0,37,0.00,,,0.00,Wunderground v.1.15,2013-03-29 16:26:00,
2013-03-29 12:28:00,54.4,28.0,30.24,ESE,114,1.0,6.0,36,0.00,,,0.00,Wunderground v.1.15,2013-03-29 16:28:00,
2013-03-29 12:30:00,54.3,27.9,30.24,SW,236,2.0,5.0,36,0.00,,,0.00,Wunderground v.1.15,2013-03-29 16:30:00,
2013-03-29 12:32:00,54.4,28.0,30.25,WNW,294,2.0,7.0,36,0.00,,,0.00,Wunderground v.1.15,2013-03-29 16:32:00,
2013-03-29 12:33:00,54.5,28.1,30.24,NE,53,4.0,7.0,36,0.00,,,0.00,Wunderground v.1.15,2013-03-29 16:33:00,
2013-03-29 12:36:00,54.6,27.5,30.24,West,267,1.0,7.0,35,0.00,,,0.00,Wunderground v.1.15,2013-03-29 16:36:00,
2013-03-29 12:37:00,54.7,28.2,30.24,WSW,255,1.0,7.0,36,0.00,,,0.00,Wunderground v.1.15,2013-03-29 16:37:00,
2013-03-29 12:38:00,54.8,27.6,30.24,NE,53,3.0,7.0,35,0.00,,,0.00,Wunderground v.1.15,2013-03-29 16:38:00,
2013-03-29 12:39:00,54.8,27.6,30.24,WSW,240,3.0,7.0,35,0.00,,,0.00,Wunderground v.1.15,2013-03-29 16:39:00,
2013-03-29 12:41:00,54.8,27.6,30.24,WSW,242,3.0,8.0,35,0.00,,,0.00,Wunderground v.1.15,2013-03-29 16:41:00,
2013-03-29 12:42:00,54.9,28.4,30.24,East,91,1.0,8.0,36,0.00,,,0.00,Wunderground v.1.15,2013-03-29 16:42:00,
2013-03-29 12:43:00,55.0,27.8,30.24,WSW,253,1.0,8.0,35,0.00,,,0.00,Wunderground v.1.15,2013-03-29 16:43:00,
2013-03-29 12:44:00,55.1,27.9,30.24,ESE,115,1.0,8.0,35,0.00,,,0.00,Wunderground v.1.15,2013-03-29 16:44:00,
2013-03-29 12:47:00,55.1,27.2,30.24,NNE,26,2.0,8.0,34,0.00,,,0.00,Wunderground v.1.15,2013-03-29 16:47:00,
2013-03-29 12:48:00,55.0,27.1,30.23,NE,51,1.0,8.0,34,0.00,,,0.00,Wunderground v.1.15,2013-03-29 16:48:00,
2013-03-29 12:49:00,55.1,27.9,30.23,West,281,1.0,8.0,35,0.00,,,0.00,Wunderground v.1.15,2013-03-29 16:49:00,
2013-03-29 12:52:00,55.4,28.2,30.23,NE,37,2.0,2.0,35,0.00,,,0.00,Wunderground v.1.15,2013-03-29 16:52:00,
2013-03-29 12:53:00,55.5,27.6,30.23,NNW,341,4.0,7.0,34,0.00,,,0.00,Wunderground v.1.15,2013-03-29 16:53:00,
2013-03-29 12:54:00,55.5,27.6,30.23,NNE,29,7.0,8.0,34,0.00,,,0.00,Wunderground v.1.15,2013-03-29 16:54:00,
2013-03-29 12:57:00,55.4,27.5,30.23,NE,39,3.0,8.0,34,0.00,,,0.00,Wunderground v.1.15,2013-03-29 16:57:00,
2013-03-29 12:58:00,55.4,28.2,30.23,ENE,63,2.0,8.0,35,0.00,,,0.00,Wunderground v.1.15,2013-03-29 16:58:00,
2013-03-29 12:59:00,55.3,28.1,30.23,NE,44,4.0,8.0,35,0.00,,,0.00,Wunderground v.1.15,2013-03-29 16:59:00,
2013-03-29 13:03:00,55.3,27.4,30.23,ENE,77,3.0,6.0,34,0.00,,,0.00,Wunderground v.1.15,2013-03-29 17:03:00,
2013-03-29 13:04:00,55.1,27.9,30.23,NE,46,2.0,6.0,35,0.00,,,0.00,Wunderground v.1.15,2013-03-29 17:04:00,
2013-03-29 13:05:00,54.9,27.0,30.23,NE,53,1.0,6.0,34,0.00,,,0.00,Wunderground v.1.15,2013-03-29 17:05:00,
2013-03-29 13:08:00,55.0,28.5,30.22,East,84,2.0,6.0,36,0.00,,,0.00,Wunderground v.1.15,2013-03-29 17:08:00,
2013-03-29 13:09:00,55.1,28.6,30.22,West,266,5.0,6.0,36,0.00,,,0.00,Wunderground v.1.15,2013-03-29 17:09:00,
2013-03-29 13:10:00,55.4,28.9,30.22,North,360,8.0,8.0,36,0.00,,,0.00,Wunderground v.1.15,2013-03-29 17:10:00,
2013-03-29 13:13:00,55.8,28.5,30.22,ENE,76,1.0,8.0,35,0.00,,,0.00,Wunderground v.1.15,2013-03-29 17:13:00,
2013-03-29 13:14:00,55.9,28.6,30.22,NNE,23,2.0,8.0,35,0.00,,,0.00,Wunderground v.1.15,2013-03-29 17:14:00,
2013-03-29 13:15:00,56.2,28.2,30.22,NNW,329,2.0,8.0,34,0.00,,,0.00,Wunderground v.1.15,2013-03-29 17:15:00,
2013-03-29 13:18:00,56.2,28.2,30.22,WNW,290,2.0,8.0,34,0.00,,,0.00,Wunderground v.1.15,2013-03-29 17:18:00,
2013-03-29 13:19:00,56.2,27.4,30.22,SW,236,1.0,8.0,33,0.00,,,0.00,Wunderground v.1.15,2013-03-29 17:19:00,
2013-03-29 13:20:00,56.1,27.4,30.22,WNW,285,1.0,2.0,33,0.00,,,0.00,Wunderground v.1.15,2013-03-29 17:20:00,
2013-03-29 13:24:00,56.3,28.3,30.22,SSE,162,2.0,2.0,34,0.00,,,0.00,Wunderground v.1.15,2013-03-29 17:24:00,
2013-03-29 13:25:00,56.3,27.5,30.22,SSW,200,1.0,3.0,33,0.00,,,0.00,Wunderground v.1.15,2013-03-29 17:25:00,
2013-03-29 13:26:00,56.3,27.5,30.22,SW,225,6.0,6.0,33,0.00,,,0.00,Wunderground v.1.15,2013-03-29 17:26:00,
2013-03-29 13:29:00,56.4,26.9,30.22,ENE,63,2.0,6.0,32,0.00,,,0.00,Wunderground v.1.15,2013-03-29 17:29:00,
2013-03-29 13:30:00,56.3,26.8,30.21,ENE,63,1.0,6.0,32,0.00,,,0.00,Wunderground v.1.15,2013-03-29 17:30:00,
2013-03-29 13:31:00,56.2,26.7,30.21,SW,225,1.0,2.0,32,0.00,,,0.00,Wunderground v.1.15,2013-03-29 17:31:00,
2013-03-29 13:34:00,56.1,27.4,30.21,South,187,1.0,5.0,33,0.00,,,0.00,Wunderground v.1.15,2013-03-29 17:34:00,
2013-03-29 13:35:00,56.1,27.4,30.21,ESE,113,1.0,5.0,33,0.00,,,0.00,Wunderground v.1.15,2013-03-29 17:35:00,
2013-03-29 13:37:00,56.2,26.7,30.21,West,264,4.0,5.0,32,0.00,,,0.00,Wunderground v.1.15,2013-03-29 17:37:00,
2013-03-29 13:39:00,56.2,26.7,30.21,SSW,210,3.0,6.0,32,0.00,,,0.00,Wunderground v.1.15,2013-03-29 17:39:00,
2013-03-29 13:40:00,56.3,26.8,30.21,SSW,200,2.0,6.0,32,0.00,,,0.00,Wunderground v.1.15,2013-03-29 17:40:00,
2013-03-29 13:42:00,56.4,26.9,30.21,SSW,211,1.0,4.0,32,0.00,,,0.00,Wunderground v.1.15,2013-03-29 17:42:00,
2013-03-29 13:44:00,56.8,27.2,30.21,WSW,237,2.0,4.0,32,0.00,,,0.00,Wunderground v.1.15,2013-03-29 17:44:00,
2013-03-29 13:45:00,56.8,27.2,30.21,SW,236,1.0,4.0,32,0.00,,,0.00,Wunderground v.1.15,2013-03-29 17:45:00,
2013-03-29 13:47:00,57.1,28.2,30.21,SW,232,1.0,4.0,33,0.00,,,0.00,Wunderground v.1.15,2013-03-29 17:47:00,
2013-03-29 13:49:00,57.5,27.8,30.21,North,358,6.0,6.0,32,0.00,,,0.00,Wunderground v.1.15,2013-03-29 17:49:00,
2013-03-29 13:50:00,57.5,27.8,30.21,WNW,282,2.0,3.0,32,0.00,,,0.00,Wunderground v.1.15,2013-03-29 17:50:00,
2013-03-29 13:52:00,57.5,27.1,30.20,SE,129,1.0,4.0,31,0.00,,,0.00,Wunderground v.1.15,2013-03-29 17:52:00,
2013-03-29 13:55:00,57.7,28.0,30.20,SSW,210,1.0,4.0,32,0.00,,,0.00,Wunderground v.1.15,2013-03-29 17:55:00,
2013-03-29 13:57:00,57.9,27.4,30.20,SE,127,1.0,4.0,31,0.00,,,0.00,Wunderground v.1.15,2013-03-29 17:57:00,
2013-03-29 14:00:00,58.1,27.6,30.20,NNE,20,4.0,4.0,31,0.00,,,0.00,Wunderground v.1.15,2013-03-29 18:00:00,
2013-03-29 14:01:00,58.0,27.5,30.20,NE,35,4.0,4.0,31,0.00,,,0.00,Wunderground v.1.15,2013-03-29 18:01:00,
2013-03-29 14:02:00,57.9,27.4,30.20,NW,316,2.0,4.0,31,0.00,,,0.00,Wunderground v.1.15,2013-03-29 18:02:00,
2013-03-29 14:05:00,57.8,28.1,30.20,NE,37,3.0,4.0,32,0.00,,,0.00,Wunderground v.1.15,2013-03-29 18:05:00,
2013-03-29 14:06:00,57.9,27.4,30.20,East,83,4.0,4.0,31,0.00,,,0.00,Wunderground v.1.15,2013-03-29 18:06:00,
2013-03-29 14:08:00,58.0,27.5,30.20,NNE,25,2.0,4.0,31,0.00,,,0.00,Wunderground v.1.15,2013-03-29 18:08:00,
2013-03-29 14:10:00,58.2,27.7,30.19,NW,315,0.0,2.0,31,0.00,,,0.00,Wunderground v.1.15,2013-03-29 18:10:00,
2013-03-29 14:12:00,58.3,27.8,30.20,SW,218,0.0,5.0,31,0.00,,,0.00,Wunderground v.1.15,2013-03-29 18:12:00,
2013-03-29 14:13:00,58.5,27.9,30.19,SSW,193,0.0,5.0,31,0.00,,,0.00,Wunderground v.1.15,2013-03-29 18:13:00,
2013-03-29 14:15:00,58.6,28.0,30.19,SSW,195,0.0,5.0,31,0.00,,,0.00,Wunderground v.1.15,2013-03-29 18:15:00,
2013-03-29 14:17:00,58.9,27.5,30.19,SSW,212,6.0,6.0,30,0.00,,,0.00,Wunderground v.1.15,2013-03-29 18:17:00,
2013-03-29 14:20:00,58.3,26.1,30.19,NE,51,2.0,2.0,29,0.00,,,0.00,Wunderground v.1.15,2013-03-29 18:20:00,
2013-03-29 14:22:00,57.9,27.4,30.19,NE,44,2.0,5.0,31,0.00,,,0.00,Wunderground v.1.15,2013-03-29 18:22:00,
2013-03-29 14:23:00,57.9,27.4,30.18,NE,51,1.0,5.0,31,0.00,,,0.00,Wunderground v.1.15,2013-03-29 18:23:00,
2013-03-29 14:25:00,58.0,27.5,30.18,NNW,344,1.0,5.0,31,0.00,,,0.00,Wunderground v.1.15,2013-03-29 18:25:00,
2013-03-29 14:26:00,58.1,26.8,30.18,NNE,29,2.0,5.0,30,0.00,,,0.00,Wunderground v.1.15,2013-03-29 18:26:00,
2013-03-29 14:27:00,58.0,27.5,30.18,SW,219,2.0,6.0,31,0.00,,,0.00,Wunderground v.1.15,2013-03-29 18:27:00,
2013-03-29 14:28:00,58.0,27.5,30.18,SSW,207,2.0,6.0,31,0.00,,,0.00,Wunderground v.1.15,2013-03-29 18:28:00,
2013-03-29 14:30:00,58.2,27.7,30.18,NNE,24,1.0,3.0,31,0.00,,,0.00,Wunderground v.1.15,2013-03-29 18:30:00,
2013-03-29 14:31:00,58.3,27.8,30.18,NNE,31,5.0,6.0,31,0.00,,,0.00,Wunderground v.1.15,2013-03-29 18:31:00,
2013-03-29 14:32:00,58.4,27.1,30.18,NE,48,1.0,6.0,30,0.00,,,0.00,Wunderground v.1.15,2013-03-29 18:32:00,
2013-03-29 14:33:00,58.4,27.1,30.18,WSW,239,2.0,6.0,30,0.00,,,0.00,Wunderground v.1.15,2013-03-29 18:33:00,
2013-03-29 14:35:00,58.7,28.1,30.18,East,90,1.0,6.0,31,0.00,,,0.00,Wunderground v.1.15,2013-03-29 18:35:00,
2013-03-29 14:37:00,59.1,27.7,30.18,SW,214,2.0,6.0,30,0.00,,,0.00,Wunderground v.1.15,2013-03-29 18:37:00,
2013-03-29 14:38:00,59.2,27.7,30.18,SSW,192,5.0,6.0,30,0.00,,,0.00,Wunderground v.1.15,2013-03-29 18:38:00,
2013-03-29 14:40:00,59.1,26.8,30.18,SSW,200,2.0,3.0,29,0.00,,,0.00,Wunderground v.1.15,2013-03-29 18:40:00,
2013-03-29 14:42:00,59.1,26.8,30.18,WSW,248,2.0,5.0,29,0.00,,,0.00,Wunderground v.1.15,2013-03-29 18:42:00,
2013-03-29 14:43:00,59.1,26.8,30.18,SSE,152,2.0,5.0,29,0.00,,,0.00,Wunderground v.1.15,2013-03-29 18:43:00,
2013-03-29 14:46:00,59.1,26.8,30.17,SW,229,0.0,5.0,29,0.00,,,0.00,Wunderground v.1.15,2013-03-29 18:46:00,
2013-03-29 14:47:00,59.2,27.7,30.17,South,183,2.0,6.0,30,0.00,,,0.00,Wunderground v.1.15,2013-03-29 18:47:00,
2013-03-29 14:48:00,59.2,26.9,30.17,NNE,27,2.0,6.0,29,0.00,,,0.00,Wunderground v.1.15,2013-03-29 18:48:00,
2013-03-29 14:51:00,59.2,26.9,30.17,South,188,0.0,2.0,29,0.00,,,0.00,Wunderground v.1.15,2013-03-29 18:51:00,
2013-03-29 14:53:00,59.4,27.9,30.16,SW,221,8.0,12.0,30,0.00,,,0.00,Wunderground v.1.15,2013-03-29 18:53:00,
2013-03-29 14:54:00,59.5,28.0,30.17,WSW,242,5.0,12.0,30,0.00,,,0.00,Wunderground v.1.15,2013-03-29 18:54:00,
2013-03-29 14:56:00,59.7,28.2,30.17,SW,231,5.0,12.0,30,0.00,,,0.00,Wunderground v.1.15,2013-03-29 18:56:00,
2013-03-29 14:58:00,59.7,26.5,30.17,WSW,257,0.0,12.0,28,0.00,,,0.00,Wunderground v.1.15,2013-03-29 18:58:00,
2013-03-29 14:59:00,59.8,27.4,30.17,NNE,23,2.0,12.0,29,0.00,,,0.00,Wunderground v.1.15,2013-03-29 18:59:00,
2013-03-29 15:02:00,59.7,27.4,30.17,SSW,193,2.0,5.0,29,0.00,,,0.00,Wunderground v.1.15,2013-03-29 19:02:00,
2013-03-29 15:04:00,59.4,26.2,30.17,West,269,2.0,8.0,28,0.00,,,0.00,Wunderground v.1.15,2013-03-29 19:04:00,
2013-03-29 15:07:00,59.0,27.6,30.17,WNW,287,5.0,8.0,30,0.00,,,0.00,Wunderground v.1.15,2013-03-29 19:07:00,
2013-03-29 15:09:00,59.1,26.8,30.17,South,187,2.0,8.0,29,0.00,,,0.00,Wunderground v.1.15,2013-03-29 19:09:00,
2013-03-29 15:12:00,59.5,28.0,30.17,West,278,3.0,4.0,30,0.00,,,0.00,Wunderground v.1.15,2013-03-29 19:12:00,
2013-03-29 15:14:00,59.9,27.5,30.17,SW,224,2.0,4.0,29,0.00,,,0.00,Wunderground v.1.15,2013-03-29 19:14:00,
2013-03-29 15:15:00,60.0,27.6,30.17,WSW,248,3.0,5.0,29,0.00,,,0.00,Wunderground v.1.15,2013-03-29 19:15:00,
2013-03-29 15:17:00,60.0,26.8,30.16,West,259,1.0,7.0,28,0.00,,,0.00,Wunderground v.1.15,2013-03-29 19:17:00,
2013-03-29 15:19:00,59.9,26.7,30.16,SSW,204,2.0,7.0,28,0.00,,,0.00,Wunderground v.1.15,2013-03-29 19:19:00,
2013-03-29 15:20:00,59.9,26.7,30.16,NNW,333,1.0,2.0,28,0.00,,,0.00,Wunderground v.1.15,2013-03-29 19:20:00,
2013-03-29 15:22:00,59.9,27.5,30.16,ENE,72,1.0,2.0,29,0.00,,,0.00,Wunderground v.1.15,2013-03-29 19:22:00,
2013-03-29 15:24:00,60.1,26.9,30.16,East,94,1.0,6.0,28,0.00,,,0.00,Wunderground v.1.15,2013-03-29 19:24:00,
2013-03-29 15:25:00,60.1,26.9,30.16,East,93,0.0,6.0,28,0.00,,,0.00,Wunderground v.1.15,2013-03-29 19:25:00,
2013-03-29 15:28:00,60.3,27.0,30.16,WNW,291,1.0,6.0,28,0.00,,,0.00,Wunderground v.1.15,2013-03-29 19:28:00,
2013-03-29 15:29:00,60.4,28.0,30.16,WSW,242,2.0,6.0,29,0.00,,,0.00,Wunderground v.1.15,2013-03-29 19:29:00,
2013-03-29 15:30:00,60.5,28.1,30.16,SSW,203,1.0,2.0,29,0.00,,,0.00,Wunderground v.1.15,2013-03-29 19:30:00,
2013-03-29 15:33:00,60.3,26.1,30.16,West,267,5.0,7.0,27,0.00,,,0.00,Wunderground v.1.15,2013-03-29 19:33:00,
2013-03-29 15:35:00,60.3,27.0,30.16,SE,125,1.0,7.0,28,0.00,,,0.00,Wunderground v.1.15,2013-03-29 19:35:00,
2013-03-29 15:38:00,60.0,26.8,30.16,WSW,239,1.0,7.0,28,0.00,,,0.00,Wunderground v.1.15,2013-03-29 19:38:00,
2013-03-29 15:40:00,59.8,26.6,30.16,NNW,347,1.0,3.0,28,0.00,,,0.00,Wunderground v.1.15,2013-03-29 19:40:00,
2013-03-29 15:43:00,59.6,28.1,30.16,NNW,345,0.0,3.0,30,0.00,,,0.00,Wunderground v.1.15,2013-03-29 19:43:00,
2013-03-29 15:45:00,59.7,27.4,30.15,SW,235,2.0,3.0,29,0.00,,,0.00,Wunderground v.1.15,2013-03-29 19:45:00,
2013-03-29 15:48:00,60.0,27.6,30.15,South,174,1.0,3.0,29,0.00,,,0.00,Wunderground v.1.15,2013-03-29 19:48:00,
2013-03-29 15:50:00,60.2,27.8,30.15,South,174,0.0,1.0,29,0.00,,,0.00,Wunderground v.1.15,2013-03-29 19:50:00,
2013-03-29 15:53:00,60.6,28.1,30.15,SSW,205,0.0,3.0,29,0.00,,,0.00,Wunderground v.1.15,2013-03-29 19:53:00,
2013-03-29 15:55:00,60.8,28.3,30.15,SSE,160,2.0,3.0,29,0.00,,,0.00,Wunderground v.1.15,2013-03-29 19:55:00,
2013-03-29 15:56:00,60.8,28.3,30.15,SSW,204,3.0,3.0,29,0.00,,,0.00,Wunderground v.1.15,2013-03-29 19:56:00,
2013-03-29 15:58:00,60.8,28.3,30.15,WSW,250,2.0,4.0,29,0.00,,,0.00,Wunderground v.1.15,2013-03-29 19:58:00,
2013-03-29 16:01:00,60.7,28.2,30.15,SSW,200,2.0,2.0,29,0.00,,,0.00,Wunderground v.1.15,2013-03-29 20:01:00,
2013-03-29 16:03:00,60.6,27.3,30.15,SSE,155,1.0,5.0,28,0.00,,,0.00,Wunderground v.1.15,2013-03-29 20:03:00,
2013-03-29 16:07:00,60.5,28.1,30.14,SW,226,2.0,5.0,29,0.00,,,0.00,Wunderground v.1.15,2013-03-29 20:07:00,
2013-03-29 16:09:00,60.7,29.1,30.15,West,267,5.0,5.0,30,0.00,,,0.00,Wunderground v.1.15,2013-03-29 20:09:00,
2013-03-29 16:12:00,60.6,28.1,30.14,West,280,3.0,5.0,29,0.00,,,0.00,Wunderground v.1.15,2013-03-29 20:12:00,
2013-03-29 16:14:00,60.7,27.4,30.14,SSW,197,2.0,5.0,28,0.00,,,0.00,Wunderground v.1.15,2013-03-29 20:14:00,
2013-03-29 16:17:00,60.8,26.6,30.15,NE,54,2.0,6.0,27,0.00,,,0.00,Wunderground v.1.15,2013-03-29 20:17:00,
2013-03-29 16:19:00,60.6,25.5,30.15,East,100,2.0,8.0,26,0.00,,,0.00,Wunderground v.1.15,2013-03-29 20:19:00,
2013-03-29 16:22:00,60.3,25.2,30.14,West,264,1.0,8.0,26,0.00,,,0.00,Wunderground v.1.15,2013-03-29 20:22:00,
2013-03-29 16:23:00,60.3,25.2,30.14,NNE,20,2.0,8.0,26,0.00,,,0.00,Wunderground v.1.15,2013-03-29 20:23:00,
2013-03-29 16:24:00,60.3,26.1,30.14,SE,141,1.0,8.0,27,0.00,,,0.00,Wunderground v.1.15,2013-03-29 20:24:00,
2013-03-29 16:28:00,60.5,26.3,30.14,SSW,201,2.0,8.0,27,0.00,,,0.00,Wunderground v.1.15,2013-03-29 20:28:00,
2013-03-29 16:29:00,60.5,26.3,30.14,SSE,152,1.0,8.0,27,0.00,,,0.00,Wunderground v.1.15,2013-03-29 20:29:00,
2013-03-29 16:33:00,61.0,27.6,30.14,ESE,118,1.0,6.0,28,0.00,,,0.00,Wunderground v.1.15,2013-03-29 20:33:00,
2013-03-29 16:34:00,61.1,25.9,30.14,SSW,205,1.0,6.0,26,0.00,,,0.00,Wunderground v.1.15,2013-03-29 20:34:00,
2013-03-29 16:38:00,60.9,25.7,30.14,WSW,246,2.0,6.0,26,0.00,,,0.00,Wunderground v.1.15,2013-03-29 20:38:00,
2013-03-29 16:40:00,60.9,25.7,30.14,ENE,64,4.0,6.0,26,0.00,,,0.00,Wunderground v.1.15,2013-03-29 20:40:00,
2013-03-29 16:43:00,60.7,25.6,30.14,NNW,345,1.0,8.0,26,0.00,,,0.00,Wunderground v.1.15,2013-03-29 20:43:00,
2013-03-29 16:44:00,60.6,25.5,30.14,South,184,1.0,8.0,26,0.00,,,0.00,Wunderground v.1.15,2013-03-29 20:44:00,
2013-03-29 16:45:00,60.6,25.5,30.14,SW,218,1.0,8.0,26,0.00,,,0.00,Wunderground v.1.15,2013-03-29 20:45:00,
2013-03-29 16:48:00,60.6,26.4,30.14,SW,219,0.0,8.0,27,0.00,,,0.00,Wunderground v.1.15,2013-03-29 20:48:00,
2013-03-29 16:49:00,60.6,27.3,30.14,SW,219,0.0,8.0,28,0.00,,,0.00,Wunderground v.1.15,2013-03-29 20:49:00,
2013-03-29 16:50:00,60.7,27.4,30.14,SW,219,0.0,1.0,28,0.00,,,0.00,Wunderground v.1.15,2013-03-29 20:50:00,
2013-03-29 16:53:00,60.7,25.6,30.14,NE,45,3.0,6.0,26,0.00,,,0.00,Wunderground v.1.15,2013-03-29 20:53:00,
2013-03-29 16:54:00,60.7,25.6,30.14,East,96,1.0,6.0,26,0.00,,,0.00,Wunderground v.1.15,2013-03-29 20:54:00,
2013-03-29 16:55:00,60.6,26.4,30.14,SW,229,2.0,6.0,27,0.00,,,0.00,Wunderground v.1.15,2013-03-29 20:55:00,
2013-03-29 16:59:00,60.3,25.2,30.14,WNW,288,3.0,7.0,26,0.00,,,0.00,Wunderground v.1.15,2013-03-29 20:59:00,
2013-03-29 17:00:00,60.1,25.1,30.14,NE,34,1.0,7.0,26,0.00,,,0.00,Wunderground v.1.15,2013-03-29 21:00:00,
2013-03-29 17:04:00,60.0,25.9,30.14,SSW,203,2.0,4.0,27,0.00,,,0.00,Wunderground v.1.15,2013-03-29 21:04:00,
2013-03-29 17:05:00,60.0,26.8,30.14,SE,134,3.0,4.0,28,0.00,,,0.00,Wunderground v.1.15,2013-03-29 21:05:00,
2013-03-29 17:09:00,60.1,25.1,30.14,WSW,243,2.0,5.0,26,0.00,,,0.00,Wunderground v.1.15,2013-03-29 21:09:00,
2013-03-29 17:10:00,60.1,25.1,30.14,NE,51,1.0,5.0,26,0.00,,,0.00,Wunderground v.1.15,2013-03-29 21:10:00,
2013-03-29 17:14:00,60.1,26.0,30.14,SW,236,3.0,6.0,27,0.00,,,0.00,Wunderground v.1.15,2013-03-29 21:14:00,
2013-03-29 17:15:00,60.0,25.0,30.14,ESE,113,2.0,6.0,26,0.00,,,0.00,Wunderground v.1.15,2013-03-29 21:15:00,
2013-03-29 17:16:00,60.0,25.9,30.14,North,11,1.0,6.0,27,0.00,,,0.00,Wunderground v.1.15,2013-03-29 21:16:00,
2013-03-29 17:19:00,59.9,26.7,30.14,SSW,208,0.0,6.0,28,0.00,,,0.00,Wunderground v.1.15,2013-03-29 21:19:00,
2013-03-29 17:20:00,59.9,26.7,30.14,SW,233,1.0,2.0,28,0.00,,,0.00,Wunderground v.1.15,2013-03-29 21:20:00,
2013-03-29 17:21:00,59.9,26.7,30.14,NE,53,2.0,3.0,28,0.00,,,0.00,Wunderground v.1.15,2013-03-29 21:21:00,
2013-03-29 17:24:00,59.9,26.7,30.14,SW,221,1.0,3.0,28,0.00,,,0.00,Wunderground v.1.15,2013-03-29 21:24:00,
2013-03-29 17:25:00,59.9,26.7,30.14,SW,215,1.0,3.0,28,0.00,,,0.00,Wunderground v.1.15,2013-03-29 21:25:00,
2013-03-29 17:26:00,59.9,26.7,30.14,SSW,201,2.0,3.0,28,0.00,,,0.00,Wunderground v.1.15,2013-03-29 21:26:00,
2013-03-29 17:29:00,59.8,25.7,30.14,SW,224,3.0,9.0,27,0.00,,,0.00,Wunderground v.1.15,2013-03-29 21:29:00,
2013-03-29 17:30:00,59.8,25.7,30.14,WSW,248,1.0,2.0,27,0.00,,,0.00,Wunderground v.1.15,2013-03-29 21:30:00,
2013-03-29 17:31:00,59.8,26.6,30.14,SSE,150,1.0,2.0,28,0.00,,,0.00,Wunderground v.1.15,2013-03-29 21:31:00,
2013-03-29 17:32:00,59.8,25.7,30.14,SSW,208,1.0,2.0,27,0.00,,,0.00,Wunderground v.1.15,2013-03-29 21:32:00,
2013-03-29 17:34:00,59.8,26.6,30.14,SSW,207,0.0,2.0,28,0.00,,,0.00,Wunderground v.1.15,2013-03-29 21:34:00,
2013-03-29 17:35:00,59.8,26.6,30.14,SW,222,1.0,2.0,28,0.00,,,0.00,Wunderground v.1.15,2013-03-29 21:35:00,
2013-03-29 17:36:00,59.8,26.6,30.14,WSW,240,2.0,2.0,28,0.00,,,0.00,Wunderground v.1.15,2013-03-29 21:36:00,
2013-03-29 17:37:00,59.7,26.5,30.14,SW,225,2.0,2.0,28,0.00,,,0.00,Wunderground v.1.15,2013-03-29 21:37:00,
2013-03-29 17:39:00,59.6,26.4,30.14,WSW,238,2.0,3.0,28,0.00,,,0.00,Wunderground v.1.15,2013-03-29 21:39:00,
2013-03-29 17:40:00,59.6,26.4,30.14,SSW,211,2.0,2.0,28,0.00,,,0.00,Wunderground v.1.15,2013-03-29 21:40:00,
2013-03-29 17:42:00,59.5,26.3,30.14,ESE,120,0.0,3.0,28,0.00,,,0.00,Wunderground v.1.15,2013-03-29 21:42:00,
2013-03-29 17:45:00,59.5,27.2,30.14,SW,230,0.0,3.0,29,0.00,,,0.00,Wunderground v.1.15,2013-03-29 21:45:00,
2013-03-29 17:47:00,59.5,26.3,30.14,SW,215,2.0,5.0,28,0.00,,,0.00,Wunderground v.1.15,2013-03-29 21:47:00,
2013-03-29 17:48:00,59.5,27.2,30.14,SW,216,1.0,5.0,29,0.00,,,0.00,Wunderground v.1.15,2013-03-29 21:48:00,
2013-03-29 17:50:00,59.6,27.3,30.14,SSW,212,0.0,1.0,29,0.00,,,0.00,Wunderground v.1.15,2013-03-29 21:50:00,
2013-03-29 17:51:00,59.7,27.4,30.14,South,176,0.0,1.0,29,0.00,,,0.00,Wunderground v.1.15,2013-03-29 21:51:00,
2013-03-29 17:52:00,59.8,27.4,30.14,SW,219,1.0,2.0,29,0.00,,,0.00,Wunderground v.1.15,2013-03-29 21:52:00,
2013-03-29 17:53:00,59.8,26.6,30.14,SSW,207,2.0,3.0,28,0.00,,,0.00,Wunderground v.1.15,2013-03-29 21:53:00,
2013-03-29 17:55:00,59.9,27.5,30.14,South,190,2.0,3.0,29,0.00,,,0.00,Wunderground v.1.15,2013-03-29 21:55:00,
2013-03-29 17:58:00,59.8,26.6,30.14,South,184,2.0,3.0,28,0.00,,,0.00,Wunderground v.1.15,2013-03-29 21:58:00,
2013-03-29 18:00:00,59.8,26.6,30.14,SW,235,2.0,2.0,28,0.00,,,0.00,Wunderground v.1.15,2013-03-29 22:00:00,
2013-03-29 18:01:00,59.8,26.6,30.14,WSW,239,1.0,2.0,28,0.00,,,0.00,Wunderground v.1.15,2013-03-29 22:01:00,
2013-03-29 18:03:00,59.7,26.5,30.14,ESE,106,1.0,5.0,28,0.00,,,0.00,Wunderground v.1.15,2013-03-29 22:03:00,
2013-03-29 18:05:00,59.5,26.3,30.14,South,187,2.0,5.0,28,0.00,,,0.00,Wunderground v.1.15,2013-03-29 22:05:00,
2013-03-29 18:06:00,59.4,26.2,30.14,WSW,243,2.0,5.0,28,0.00,,,0.00,Wunderground v.1.15,2013-03-29 22:06:00,
2013-03-29 18:08:00,59.3,26.2,30.14,South,190,1.0,5.0,28,0.00,,,0.00,Wunderground v.1.15,2013-03-29 22:08:00,
2013-03-29 18:10:00,59.3,26.2,30.13,SE,131,1.0,3.0,28,0.00,,,0.00,Wunderground v.1.15,2013-03-29 22:10:00,
2013-03-29 18:11:00,59.3,26.2,30.13,SSW,203,1.0,3.0,28,0.00,,,0.00,Wunderground v.1.15,2013-03-29 22:11:00,
2013-03-29 18:13:00,59.2,26.1,30.13,SW,231,2.0,3.0,28,0.00,,,0.00,Wunderground v.1.15,2013-03-29 22:13:00,
2013-03-29 18:17:00,59.3,26.2,30.13,South,186,2.0,3.0,28,0.00,,,0.00,Wunderground v.1.15,2013-03-29 22:17:00,
2013-03-29 18:18:00,59.3,26.2,30.14,SSW,207,0.0,3.0,28,0.00,,,0.00,Wunderground v.1.15,2013-03-29 22:18:00,
2013-03-29 18:22:00,59.2,26.1,30.14,SSW,210,0.0,2.0,28,0.00,,,0.00,Wunderground v.1.15,2013-03-29 22:22:00,
2013-03-29 18:23:00,59.2,26.9,30.13,WSW,242,2.0,2.0,29,0.00,,,0.00,Wunderground v.1.15,2013-03-29 22:23:00,
2013-03-29 18:27:00,59.0,25.9,30.13,WSW,245,2.0,7.0,28,0.00,,,0.00,Wunderground v.1.15,2013-03-29 22:27:00,
2013-03-29 18:28:00,59.0,25.0,30.14,West,271,2.0,7.0,27,0.00,,,0.00,Wunderground v.1.15,2013-03-29 22:28:00,
2013-03-29 18:29:00,59.0,25.0,30.14,SW,236,1.0,7.0,27,0.00,,,0.00,Wunderground v.1.15,2013-03-29 22:29:00,
2013-03-29 18:32:00,58.9,25.8,30.14,SSW,194,1.0,4.0,28,0.00,,,0.00,Wunderground v.1.15,2013-03-29 22:32:00,
2013-03-29 18:34:00,58.9,25.8,30.14,NW,305,3.0,4.0,28,0.00,,,0.00,Wunderground v.1.15,2013-03-29 22:34:00,
2013-03-29 18:38:00,58.8,25.7,30.14,SW,235,2.0,4.0,28,0.00,,,0.00,Wunderground v.1.15,2013-03-29 22:38:00,
2013-03-29 18:39:00,58.7,25.6,30.14,SSW,203,0.0,4.0,28,0.00,,,0.00,Wunderground v.1.15,2013-03-29 22:39:00,
2013-03-29 18:43:00,58.5,25.5,30.14,West,271,2.0,2.0,28,0.00,,,0.00,Wunderground v.1.15,2013-03-29 22:43:00,
2013-03-29 18:44:00,58.5,25.5,30.14,WNW,295,2.0,3.0,28,0.00,,,0.00,Wunderground v.1.15,2013-03-29 22:44:00,
2013-03-29 18:48:00,58.3,26.1,30.14,WSW,238,1.0,7.0,29,0.00,,,0.00,Wunderground v.1.15,2013-03-29 22:48:00,
2013-03-29 18:49:00,58.2,26.1,30.14,WSW,237,0.0,7.0,29,0.00,,,0.00,Wunderground v.1.15,2013-03-29 22:49:00,
2013-03-29 18:50:00,58.2,26.1,30.14,SSW,204,0.0,7.0,29,0.00,,,0.00,Wunderground v.1.15,2013-03-29 22:50:00,
2013-03-29 18:53:00,58.0,25.0,30.14,West,274,1.0,2.0,28,0.00,,,0.00,Wunderground v.1.15,2013-03-29 22:53:00,
2013-03-29 18:54:00,58.0,25.9,30.13,WSW,243,1.0,2.0,29,0.00,,,0.00,Wunderground v.1.15,2013-03-29 22:54:00,
2013-03-29 18:55:00,58.0,25.9,30.14,WSW,243,0.0,2.0,29,0.00,,,0.00,Wunderground v.1.15,2013-03-29 22:55:00,
2013-03-29 18:58:00,57.8,25.7,30.13,West,264,0.0,2.0,29,0.00,,,0.00,Wunderground v.1.15,2013-03-29 22:58:00,
2013-03-29 18:59:00,57.8,25.7,30.13,West,264,0.0,2.0,29,0.00,,,0.00,Wunderground v.1.15,2013-03-29 22:59:00,
2013-03-29 19:01:00,57.7,25.6,30.13,West,264,1.0,1.0,29,0.00,,,0.00,Wunderground v.1.15,2013-03-29 23:01:00,
2013-03-29 19:03:00,57.6,25.5,30.13,SW,221,2.0,3.0,29,0.00,,,0.00,Wunderground v.1.15,2013-03-29 23:03:00,
2013-03-29 19:05:00,57.5,25.5,30.13,SW,215,0.0,3.0,29,0.00,,,0.00,Wunderground v.1.15,2013-03-29 23:05:00,
2013-03-29 19:06:00,57.5,25.5,30.13,SW,215,0.0,3.0,29,0.00,,,0.00,Wunderground v.1.15,2013-03-29 23:06:00,
2013-03-29 19:08:00,57.4,26.2,30.14,SW,233,1.0,3.0,30,0.00,,,0.00,Wunderground v.1.15,2013-03-29 23:08:00,
2013-03-29 19:10:00,57.3,25.3,30.13,SW,234,0.0,1.0,29,0.00,,,0.00,Wunderground v.1.15,2013-03-29 23:10:00,
2013-03-29 19:11:00,57.2,26.0,30.13,SW,233,0.0,1.0,30,0.00,,,0.00,Wunderground v.1.15,2013-03-29 23:11:00,
2013-03-29 19:14:00,57.0,25.8,30.13,SW,233,0.0,1.0,30,0.00,,,0.00,Wunderground v.1.15,2013-03-29 23:14:00,
2013-03-29 19:15:00,57.0,25.8,30.13,SW,233,0.0,1.0,30,0.00,,,0.00,Wunderground v.1.15,2013-03-29 23:15:00,
2013-03-29 19:17:00,56.8,26.5,30.13,SW,233,0.0,1.0,31,0.00,,,0.00,Wunderground v.1.15,2013-03-29 23:17:00,
2013-03-29 19:19:00,56.7,26.4,30.13,NW,316,0.0,1.0,31,0.00,,,0.00,Wunderground v.1.15,2013-03-29 23:19:00,
2013-03-29 19:20:00,56.6,26.3,30.13,SSW,212,0.0,0.0,31,0.00,,,0.00,Wunderground v.1.15,2013-03-29 23:20:00,
2013-03-29 19:21:00,56.6,26.3,30.13,SSW,212,0.0,0.0,31,0.00,,,0.00,Wunderground v.1.15,2013-03-29 23:21:00,
2013-03-29 19:22:00,56.4,26.1,30.13,SSW,212,0.0,0.0,31,0.00,,,0.00,Wunderground v.1.15,2013-03-29 23:22:00,
2013-03-29 19:24:00,56.3,26.0,30.13,SSW,212,0.0,0.0,31,0.00,,,0.00,Wunderground v.1.15,2013-03-29 23:24:00,
2013-03-29 19:25:00,56.2,25.9,30.13,SSW,212,0.0,0.0,31,0.00,,,0.00,Wunderground v.1.15,2013-03-29 23:25:00,
2013-03-29 19:26:00,56.1,26.6,30.13,SSW,212,0.0,0.0,32,0.00,,,0.00,Wunderground v.1.15,2013-03-29 23:26:00,
2013-03-29 19:27:00,56.0,26.5,30.13,SSW,212,0.0,1.0,32,0.00,,,0.00,Wunderground v.1.15,2013-03-29 23:27:00,
2013-03-29 19:29:00,55.9,27.2,30.13,SSW,212,0.0,1.0,33,0.00,,,0.00,Wunderground v.1.15,2013-03-29 23:29:00,
2013-03-29 19:30:00,55.8,26.3,30.13,SSW,212,0.0,0.0,32,0.00,,,0.00,Wunderground v.1.15,2013-03-29 23:30:00,
2013-03-29 19:32:00,55.6,26.2,30.13,SSW,212,0.0,0.0,32,0.00,,,0.00,Wunderground v.1.15,2013-03-29 23:32:00,
2013-03-29 19:33:00,55.6,26.9,30.13,SSW,212,0.0,0.0,33,0.00,,,0.00,Wunderground v.1.15,2013-03-29 23:33:00,
2013-03-29 19:34:00,55.4,26.0,30.14,SSW,212,0.0,0.0,32,0.00,,,0.00,Wunderground v.1.15,2013-03-29 23:34:00,
2013-03-29 19:35:00,55.3,25.9,30.14,SSW,212,0.0,0.0,32,0.00,,,0.00,Wunderground v.1.15,2013-03-29 23:35:00,
2013-03-29 19:37:00,55.2,26.6,30.14,SSW,212,0.0,0.0,33,0.00,,,0.00,Wunderground v.1.15,2013-03-29 23:37:00,
2013-03-29 19:38:00,55.0,27.1,30.14,SSW,212,0.0,0.0,34,0.00,,,0.00,Wunderground v.1.15,2013-03-29 23:38:00,
2013-03-29 19:39:00,54.9,27.0,30.14,SSW,212,0.0,0.0,34,0.00,,,0.00,Wunderground v.1.15,2013-03-29 23:39:00,
2013-03-29 19:40:00,54.7,27.6,30.14,SSW,212,0.0,0.0,35,0.00,,,0.00,Wunderground v.1.15,2013-03-29 23:40:00,
2013-03-29 19:42:00,54.6,27.5,30.14,SSW,212,0.0,0.0,35,0.00,,,0.00,Wunderground v.1.15,2013-03-29 23:42:00,
2013-03-29 19:43:00,54.5,27.4,30.14,SSW,212,0.0,0.0,35,0.00,,,0.00,Wunderground v.1.15,2013-03-29 23:43:00,
2013-03-29 19:44:00,54.3,27.2,30.14,SSW,212,0.0,0.0,35,0.00,,,0.00,Wunderground v.1.15,2013-03-29 23:44:00,
2013-03-29 19:45:00,54.2,27.1,30.14,SSW,212,0.0,0.0,35,0.00,,,0.00,Wunderground v.1.15,2013-03-29 23:45:00,
2013-03-29 19:48:00,53.9,27.5,30.14,SSW,212,0.0,0.0,36,0.00,,,0.00,Wunderground v.1.15,2013-03-29 23:48:00,
2013-03-29 19:50:00,53.7,27.4,30.14,SSW,212,0.0,0.0,36,0.00,,,0.00,Wunderground v.1.15,2013-03-29 23:50:00,
2013-03-29 19:53:00,53.2,26.9,30.14,SSW,212,0.0,0.0,36,0.00,,,0.00,Wunderground v.1.15,2013-03-29 23:53:00,
2013-03-29 19:55:00,53.0,28.0,30.14,SSW,212,0.0,0.0,38,0.00,,,0.00,Wunderground v.1.15,2013-03-29 23:55:00,
2013-03-29 19:58:00,52.6,27.7,30.14,SSW,212,0.0,0.0,38,0.00,,,0.00,Wunderground v.1.15,2013-03-29 23:58:00,
2013-03-29 20:00:00,52.4,27.5,30.14,SSW,212,0.0,0.0,38,0.00,,,0.00,Wunderground v.1.15,2013-03-30 00:00:00,
2013-03-29 20:01:00,52.3,27.4,30.14,SSW,212,0.0,0.0,38,0.00,,,0.00,Wunderground v.1.15,2013-03-30 00:01:00,
2013-03-29 20:03:00,52.0,27.8,30.14,SSW,212,0.0,0.0,39,0.00,,,0.00,Wunderground v.1.15,2013-03-30 00:03:00,
2013-03-29 20:05:00,51.8,27.6,30.14,SSW,212,0.0,0.0,39,0.00,,,0.00,Wunderground v.1.15,2013-03-30 00:05:00,
2013-03-29 20:06:00,51.8,27.6,30.14,SSW,212,0.0,0.0,39,0.00,,,0.00,Wunderground v.1.15,2013-03-30 00:06:00,
2013-03-29 20:08:00,51.4,27.9,30.14,SSW,212,0.0,0.0,40,0.00,,,0.00,Wunderground v.1.15,2013-03-30 00:08:00,
2013-03-29 20:09:00,51.4,27.9,30.14,SSW,212,0.0,0.0,40,0.00,,,0.00,Wunderground v.1.15,2013-03-30 00:09:00,
2013-03-29 20:10:00,51.1,28.2,30.14,SSW,212,0.0,0.0,41,0.00,,,0.00,Wunderground v.1.15,2013-03-30 00:10:00,
2013-03-29 20:11:00,51.1,28.2,30.14,SSW,212,0.0,0.0,41,0.00,,,0.00,Wunderground v.1.15,2013-03-30 00:11:00,
2013-03-29 20:13:00,50.8,27.9,30.14,SSW,212,0.0,0.0,41,0.00,,,0.00,Wunderground v.1.15,2013-03-30 00:13:00,
2013-03-29 20:14:00,50.7,28.4,30.14,SSW,212,0.0,0.0,42,0.00,,,0.00,Wunderground v.1.15,2013-03-30 00:14:00,
2013-03-29 20:15:00,50.5,28.2,30.14,SSW,212,0.0,0.0,42,0.00,,,0.00,Wunderground v.1.15,2013-03-30 00:15:00,
2013-03-29 20:17:00,50.3,28.1,30.14,SSW,212,0.0,0.0,42,0.00,,,0.00,Wunderground v.1.15,2013-03-30 00:17:00,
2013-03-29 20:19:00,50.1,28.4,30.14,SSW,212,0.0,0.0,43,0.00,,,0.00,Wunderground v.1.15,2013-03-30 00:19:00,
2013-03-29 20:21:00,49.9,28.3,30.14,SSW,212,0.0,0.0,43,0.00,,,0.00,Wunderground v.1.15,2013-03-30 00:21:00,
2013-03-29 20:22:00,49.7,28.1,30.14,SSW,212,0.0,0.0,43,0.00,,,0.00,Wunderground v.1.15,2013-03-30 00:22:00,
2013-03-29 20:24:00,49.6,28.0,30.14,SSW,212,0.0,0.0,43,0.00,,,0.00,Wunderground v.1.15,2013-03-30 00:24:00,
2013-03-29 20:26:00,49.4,27.8,30.14,SSW,212,0.0,0.0,43,0.00,,,0.00,Wunderground v.1.15,2013-03-30 00:26:00,
2013-03-29 20:27:00,49.2,28.2,30.14,SSW,212,0.0,0.0,44,0.00,,,0.00,Wunderground v.1.15,2013-03-30 00:27:00,
2013-03-29 20:29:00,49.0,28.6,30.14,SSW,212,0.0,0.0,45,0.00,,,0.00,Wunderground v.1.15,2013-03-30 00:29:00,
2013-03-29 20:31:00,48.8,28.4,30.14,SSW,212,0.0,0.0,45,0.00,,,0.00,Wunderground v.1.15,2013-03-30 00:31:00,
2013-03-29 20:32:00,48.7,28.3,30.15,SSW,212,0.0,0.0,45,0.00,,,0.00,Wunderground v.1.15,2013-03-30 00:32:00,
2013-03-29 20:34:00,48.4,28.0,30.14,SSW,212,0.0,0.0,45,0.00,,,0.00,Wunderground v.1.15,2013-03-30 00:34:00,
2013-03-29 20:36:00,48.3,28.5,30.14,SSW,212,0.0,0.0,46,0.00,,,0.00,Wunderground v.1.15,2013-03-30 00:36:00,
2013-03-29 20:37:00,48.1,28.8,30.14,SSW,212,0.0,0.0,47,0.00,,,0.00,Wunderground v.1.15,2013-03-30 00:37:00,
2013-03-29 20:39:00,48.0,28.7,30.14,SSW,213,0.0,0.0,47,0.00,,,0.00,Wunderground v.1.15,2013-03-30 00:39:00,
2013-03-29 20:42:00,47.8,28.5,30.15,SSW,212,0.0,0.0,47,0.00,,,0.00,Wunderground v.1.15,2013-03-30 00:42:00,
2013-03-29 20:44:00,47.6,28.9,30.14,SSW,213,0.0,0.0,48,0.00,,,0.00,Wunderground v.1.15,2013-03-30 00:44:00,
2013-03-29 20:45:00,47.6,28.9,30.15,SSW,212,0.0,0.0,48,0.00,,,0.00,Wunderground v.1.15,2013-03-30 00:45:00,
2013-03-29 20:47:00,47.4,28.7,30.15,SSW,212,0.0,0.0,48,0.00,,,0.00,Wunderground v.1.15,2013-03-30 00:47:00,
2013-03-29 20:49:00,47.2,28.5,30.15,SSW,212,0.0,0.0,48,0.00,,,0.00,Wunderground v.1.15,2013-03-30 00:49:00,
2013-03-29 20:50:00,47.2,28.5,30.15,SSW,212,0.0,0.0,48,0.00,,,0.00,Wunderground v.1.15,2013-03-30 00:50:00,
2013-03-29 20:53:00,47.0,28.8,30.15,SSW,212,0.0,0.0,49,0.00,,,0.00,Wunderground v.1.15,2013-03-30 00:53:00,
2013-03-29 20:54:00,46.9,28.7,30.15,SSW,212,0.0,0.0,49,0.00,,,0.00,Wunderground v.1.15,2013-03-30 00:54:00,
2013-03-29 20:55:00,46.9,29.2,30.15,SSW,212,0.0,0.0,50,0.00,,,0.00,Wunderground v.1.15,2013-03-30 00:55:00,
2013-03-29 20:58:00,46.7,29.5,30.15,SSW,212,0.0,0.0,51,0.00,,,0.00,Wunderground v.1.15,2013-03-30 00:58:00,
2013-03-29 20:59:00,46.7,29.5,30.15,SSW,212,0.0,0.0,51,0.00,,,0.00,Wunderground v.1.15,2013-03-30 00:59:00,
2013-03-29 21:00:00,46.7,29.5,30.15,SSW,212,0.0,0.0,51,0.00,,,0.00,Wunderground v.1.15,2013-03-30 01:00:00,
2013-03-29 21:04:00,46.5,29.3,30.15,SSW,212,0.0,0.0,51,0.00,,,0.00,Wunderground v.1.15,2013-03-30 01:04:00,
2013-03-29 21:05:00,46.5,29.8,30.15,SSW,212,0.0,0.0,52,0.00,,,0.00,Wunderground v.1.15,2013-03-30 01:05:00,
2013-03-29 21:09:00,46.5,29.8,30.15,SSW,212,0.0,0.0,52,0.00,,,0.00,Wunderground v.1.15,2013-03-30 01:09:00,
2013-03-29 21:10:00,46.5,29.8,30.15,SSW,212,0.0,0.0,52,0.00,,,0.00,Wunderground v.1.15,2013-03-30 01:10:00,
2013-03-29 21:14:00,46.3,30.1,30.15,SSW,212,0.0,0.0,53,0.00,,,0.00,Wunderground v.1.15,2013-03-30 01:14:00,
2013-03-29 21:15:00,46.2,30.0,30.15,SSW,212,0.0,0.0,53,0.00,,,0.00,Wunderground v.1.15,2013-03-30 01:15:00,
2013-03-29 21:19:00,45.9,30.2,30.15,SSW,212,0.0,0.0,54,0.00,,,0.00,Wunderground v.1.15,2013-03-30 01:19:00,
2013-03-29 21:20:00,45.8,30.1,30.15,SSW,212,0.0,0.0,54,0.00,,,0.00,Wunderground v.1.15,2013-03-30 01:20:00,
2013-03-29 21:24:00,45.5,30.3,30.15,SSW,212,0.0,0.0,55,0.00,,,0.00,Wunderground v.1.15,2013-03-30 01:24:00,
2013-03-29 21:25:00,45.6,30.3,30.15,SSW,212,0.0,0.0,55,0.00,,,0.00,Wunderground v.1.15,2013-03-30 01:25:00,
2013-03-29 21:29:00,45.6,30.3,30.15,SSW,212,0.0,1.0,55,0.00,,,0.00,Wunderground v.1.15,2013-03-30 01:29:00,
2013-03-29 21:30:00,45.6,30.3,30.15,SSW,212,0.0,0.0,55,0.00,,,0.00,Wunderground v.1.15,2013-03-30 01:30:00,
2013-03-29 21:31:00,45.5,30.3,30.15,SSW,212,0.0,0.0,55,0.00,,,0.00,Wunderground v.1.15,2013-03-30 01:31:00,
2013-03-29 21:35:00,45.3,30.5,30.15,SSW,212,0.0,0.0,56,0.00,,,0.00,Wunderground v.1.15,2013-03-30 01:35:00,
2013-03-29 21:36:00,45.2,30.4,30.15,SSW,212,0.0,0.0,56,0.00,,,0.00,Wunderground v.1.15,2013-03-30 01:36:00,
2013-03-29 21:40:00,45.1,30.8,30.15,SSW,212,0.0,0.0,57,0.00,,,0.00,Wunderground v.1.15,2013-03-30 01:40:00,
2013-03-29 21:42:00,44.9,30.6,30.15,SSW,212,0.0,0.0,57,0.00,,,0.00,Wunderground v.1.15,2013-03-30 01:42:00,
2013-03-29 21:45:00,44.8,30.5,30.15,SSW,212,0.0,0.0,57,0.00,,,0.00,Wunderground v.1.15,2013-03-30 01:45:00,
2013-03-29 21:46:00,44.8,30.5,30.15,SSW,212,0.0,0.0,57,0.00,,,0.00,Wunderground v.1.15,2013-03-30 01:46:00,
2013-03-29 21:47:00,44.8,30.5,30.15,SSW,212,0.0,0.0,57,0.00,,,0.00,Wunderground v.1.15,2013-03-30 01:47:00,
2013-03-29 21:50:00,44.7,30.8,30.15,SSW,212,0.0,0.0,58,0.00,,,0.00,Wunderground v.1.15,2013-03-30 01:50:00,
2013-03-29 21:51:00,44.7,30.8,30.15,SSW,212,0.0,0.0,58,0.00,,,0.00,Wunderground v.1.15,2013-03-30 01:51:00,
2013-03-29 21:52:00,44.7,30.8,30.15,SSW,212,0.0,0.0,58,0.00,,,0.00,Wunderground v.1.15,2013-03-30 01:52:00,
2013-03-29 21:55:00,44.6,30.7,30.15,SSW,212,0.0,1.0,58,0.00,,,0.00,Wunderground v.1.15,2013-03-30 01:55:00,
2013-03-29 21:56:00,44.5,30.6,30.16,SSW,212,0.0,1.0,58,0.00,,,0.00,Wunderground v.1.15,2013-03-30 01:56:00,
2013-03-29 21:57:00,44.5,30.6,30.16,SSW,212,0.0,1.0,58,0.00,,,0.00,Wunderground v.1.15,2013-03-30 01:57:00,
2013-03-29 22:00:00,44.4,30.5,30.15,SSW,212,0.0,0.0,58,0.00,,,0.00,Wunderground v.1.15,2013-03-30 02:00:00,
2013-03-29 22:01:00,44.3,30.4,30.16,SSW,212,0.0,0.0,58,0.00,,,0.00,Wunderground v.1.15,2013-03-30 02:01:00,
2013-03-29 22:02:00,44.3,30.4,30.16,SSW,212,0.0,0.0,58,0.00,,,0.00,Wunderground v.1.15,2013-03-30 02:02:00,
2013-03-29 22:06:00,44.1,30.3,30.16,SSW,212,0.0,0.0,58,0.00,,,0.00,Wunderground v.1.15,2013-03-30 02:06:00,
2013-03-29 22:07:00,44.0,30.6,30.16,SSW,212,0.0,0.0,59,0.00,,,0.00,Wunderground v.1.15,2013-03-30 02:07:00,
2013-03-29 22:11:00,43.7,30.3,30.16,SSW,212,0.0,0.0,59,0.00,,,0.00,Wunderground v.1.15,2013-03-30 02:11:00,
2013-03-29 22:12:00,43.7,30.3,30.16,SSW,212,0.0,0.0,59,0.00,,,0.00,Wunderground v.1.15,2013-03-30 02:12:00,
2013-03-29 22:17:00,43.5,30.1,30.16,SSW,212,0.0,0.0,59,0.00,,,0.00,Wunderground v.1.15,2013-03-30 02:17:00,
2013-03-29 22:22:00,43.3,30.3,30.16,SSW,212,0.0,0.0,60,0.00,,,0.00,Wunderground v.1.15,2013-03-30 02:22:00,
2013-03-29 22:23:00,43.3,30.3,30.16,SSW,212,0.0,0.0,60,0.00,,,0.00,Wunderground v.1.15,2013-03-30 02:23:00,
2013-03-29 22:27:00,43.1,30.6,30.16,SSW,212,0.0,0.0,61,0.00,,,0.00,Wunderground v.1.15,2013-03-30 02:27:00,
2013-03-29 22:28:00,43.1,30.6,30.16,SSW,212,0.0,0.0,61,0.00,,,0.00,Wunderground v.1.15,2013-03-30 02:28:00,
2013-03-29 22:32:00,43.0,30.5,30.16,SSW,212,0.0,0.0,61,0.00,,,0.00,Wunderground v.1.15,2013-03-30 02:32:00,
2013-03-29 22:33:00,43.0,30.5,30.16,SSW,212,0.0,0.0,61,0.00,,,0.00,Wunderground v.1.15,2013-03-30 02:33:00,
2013-03-29 22:37:00,43.0,30.9,30.16,SSW,212,0.0,0.0,62,0.00,,,0.00,Wunderground v.1.15,2013-03-30 02:37:00,
2013-03-29 22:38:00,43.0,30.9,30.16,SSW,212,0.0,0.0,62,0.00,,,0.00,Wunderground v.1.15,2013-03-30 02:38:00,
2013-03-29 22:42:00,42.9,30.8,30.16,SSW,212,0.0,0.0,62,0.00,,,0.00,Wunderground v.1.15,2013-03-30 02:42:00,
2013-03-29 22:43:00,42.9,30.8,30.16,SSW,212,0.0,0.0,62,0.00,,,0.00,Wunderground v.1.15,2013-03-30 02:43:00,
2013-03-29 22:44:00,42.9,30.8,30.16,SSW,212,0.0,0.0,62,0.00,,,0.00,Wunderground v.1.15,2013-03-30 02:44:00,
2013-03-29 22:48:00,43.0,30.5,30.16,SSW,212,0.0,0.0,61,0.00,,,0.00,Wunderground v.1.15,2013-03-30 02:48:00,
2013-03-29 22:49:00,43.0,30.5,30.16,SSW,212,0.0,0.0,61,0.00,,,0.00,Wunderground v.1.15,2013-03-30 02:49:00,
2013-03-29 22:53:00,43.0,30.5,30.16,SSW,212,0.0,0.0,61,0.00,,,0.00,Wunderground v.1.15,2013-03-30 02:53:00,
2013-03-29 22:54:00,42.9,30.0,30.16,SSW,212,0.0,0.0,60,0.00,,,0.00,Wunderground v.1.15,2013-03-30 02:54:00,
2013-03-29 22:58:00,42.9,30.4,30.16,SSW,212,0.0,0.0,61,0.00,,,0.00,Wunderground v.1.15,2013-03-30 02:58:00,
2013-03-29 22:59:00,42.9,30.8,30.16,SSW,212,0.0,0.0,62,0.00,,,0.00,Wunderground v.1.15,2013-03-30 02:59:00,
2013-03-29 23:04:00,42.9,30.8,30.16,SSW,212,0.0,0.0,62,0.00,,,0.00,Wunderground v.1.15,2013-03-30 03:04:00,
2013-03-29 23:05:00,42.9,30.8,30.16,SSW,212,0.0,0.0,62,0.00,,,0.00,Wunderground v.1.15,2013-03-30 03:05:00,
2013-03-29 23:09:00,43.1,31.7,30.16,SSW,212,0.0,0.0,64,0.00,,,0.00,Wunderground v.1.15,2013-03-30 03:09:00,
2013-03-29 23:10:00,43.1,31.7,30.16,SSW,212,0.0,0.0,64,0.00,,,0.00,Wunderground v.1.15,2013-03-30 03:10:00,
2013-03-29 23:14:00,43.3,32.3,30.16,SSW,212,0.0,0.0,65,0.00,,,0.00,Wunderground v.1.15,2013-03-30 03:14:00,
2013-03-29 23:15:00,43.3,32.3,30.16,SSW,212,0.0,0.0,65,0.00,,,0.00,Wunderground v.1.15,2013-03-30 03:15:00,
2013-03-29 23:19:00,43.5,32.5,30.16,SSW,212,0.0,0.0,65,0.00,,,0.00,Wunderground v.1.15,2013-03-30 03:19:00,
2013-03-29 23:20:00,43.5,32.5,30.16,SSW,212,0.0,0.0,65,0.00,,,0.00,Wunderground v.1.15,2013-03-30 03:20:00,
2013-03-29 23:24:00,43.5,32.5,30.16,SSW,212,0.0,0.0,65,0.00,,,0.00,Wunderground v.1.15,2013-03-30 03:24:00,
2013-03-29 23:25:00,43.5,32.5,30.16,SSW,212,0.0,0.0,65,0.00,,,0.00,Wunderground v.1.15,2013-03-30 03:25:00,
2013-03-29 23:30:00,43.5,31.7,30.16,SSW,212,0.0,0.0,63,0.00,,,0.00,Wunderground v.1.15,2013-03-30 03:30:00,
2013-03-29 23:35:00,43.7,31.9,30.16,SSW,212,0.0,0.0,63,0.00,,,0.00,Wunderground v.1.15,2013-03-30 03:35:00,
2013-03-29 23:40:00,43.8,32.0,30.16,SSW,212,0.0,0.0,63,0.00,,,0.00,Wunderground v.1.15,2013-03-30 03:40:00,
2013-03-29 23:41:00,43.8,32.0,30.16,SSW,212,0.0,0.0,63,0.00,,,0.00,Wunderground v.1.15,2013-03-30 03:41:00,
2013-03-29 23:42:00,43.8,31.6,30.16,SSW,212,0.0,0.0,62,0.00,,,0.00,Wunderground v.1.15,2013-03-30 03:42:00,
2013-03-29 23:45:00,44.0,31.8,30.16,SSW,212,0.0,0.0,62,0.00,,,0.00,Wunderground v.1.15,2013-03-30 03:45:00,
2013-03-29 23:46:00,44.0,32.2,30.16,SSW,212,0.0,0.0,63,0.00,,,0.00,Wunderground v.1.15,2013-03-30 03:46:00,
2013-03-29 23:47:00,44.1,32.3,30.16,SSW,212,0.0,0.0,63,0.00,,,0.00,Wunderground v.1.15,2013-03-30 03:47:00,
2013-03-29 23:50:00,44.2,32.0,30.16,SSW,212,0.0,0.0,62,0.00,,,0.00,Wunderground v.1.15,2013-03-30 03:50:00,
2013-03-29 23:52:00,44.2,32.0,30.16,SSW,212,0.0,0.0,62,0.00,,,0.00,Wunderground v.1.15,2013-03-30 03:52:00,
2013-03-29 23:55:00,44.4,32.6,30.16,SSW,212,0.0,0.0,63,0.00,,,0.00,Wunderground v.1.15,2013-03-30 03:55:00,
2013-03-29 23:57:00,44.5,32.3,30.16,SSW,212,0.0,0.0,62,0.00,,,0.00,Wunderground v.1.15,2013-03-30 03:57:00,
2013-03-29 23:58:00,44.5,32.7,30.16,SSW,212,0.0,0.0,63,0.00,,,0.00,Wunderground v.1.15,2013-03-30 03:58:00,